Observation data for Coyanosa on 11/13/2019      Previous  Date       Current Mesonet Observations  Soil Data  Daily Summary Page  Observations in Plain Language
KCO1 130600Z 14005KT 01/M05 A3028 RMK A01 T00081045  RH  067%=      5-min Rain = 0
KCO1 130601Z 14004KT 01/M05 A3028 RMK A01 T00091045  RH  068%=      5-min Rain = 0
KCO1 130602Z 15004KT 01/M04 A3028 RMK A01 T00091044  RH  068%=      5-min Rain = 0
KCO1 130603Z 15004KT 01/M04 A3028 RMK A01 T00081043  RH  068%=      5-min Rain = 0
KCO1 130604Z 15003KT 01/M04 A3028 RMK A01 T00081044  RH  068%=      5-min Rain = 0
KCO1 130605Z 14004KT 01/M04 A3028 RMK A01 T00081044  RH  068%=      5-min Rain = 0
KCO1 130606Z 14004KT 01/M04 A3028 RMK A01 T00081044  RH  068%=      5-min Rain = 0
KCO1 130607Z 14004KT 01/M04 A3028 RMK A01 T00081044  RH  068%=      5-min Rain = 0
KCO1 130608Z 14004KT 01/M04 A3028 RMK A01 T00081044  RH  069%=      5-min Rain = 0
KCO1 130609Z 13004KT 01/M04 A3028 RMK A01 T00071043  RH  069%=      5-min Rain = 0
KCO1 130610Z 13004KT 01/M04 A3028 RMK A01 T00071042  RH  069%=      5-min Rain = 0
KCO1 130611Z 13004KT 01/M04 A3028 RMK A01 T00071042  RH  070%=      5-min Rain = 0
KCO1 130612Z 14004KT 01/M04 A3028 RMK A01 T00071043  RH  070%=      5-min Rain = 0
KCO1 130613Z 13003KT 01/M04 A3028 RMK A01 T00071042  RH  070%=      5-min Rain = 0
KCO1 130614Z 14003KT 01/M04 A3028 RMK A01 T00071042  RH  070%=      5-min Rain = 0
KCO1 130615Z 14003KT 01/M04 A3028 RMK A01 T00071042  RH  070%=      5-min Rain = 0
KCO1 130616Z 13003KT 01/M04 A3028 RMK A01 T00071041  RH  070%=      5-min Rain = 0
KCO1 130617Z 12003KT 01/M04 A3028 RMK A01 T00061041  RH  071%=      5-min Rain = 0
KCO1 130618Z 12003KT 01/M04 A3027 RMK A01 T00061040  RH  071%=      5-min Rain = 0
KCO1 130619Z 12003KT 01/M04 A3027 RMK A01 T00061041  RH  071%=      5-min Rain = 0
KCO1 130620Z 13002KT 01/M04 A3027 RMK A01 T00061040  RH  071%=      5-min Rain = 0
KCO1 130621Z 13002KT 01/M04 A3027 RMK A01 T00061040  RH  071%=      5-min Rain = 0
KCO1 130622Z 14003KT 01/M04 A3027 RMK A01 T00061040  RH  071%=      5-min Rain = 0
KCO1 130623Z 14003KT 01/M04 A3027 RMK A01 T00051041  RH  071%=      5-min Rain = 0
KCO1 130624Z 14003KT 01/M04 A3027 RMK A01 T00051040  RH  071%=      5-min Rain = 0
KCO1 130625Z 14003KT 01/M04 A3027 RMK A01 T00051040  RH  072%=      5-min Rain = 0
KCO1 130626Z 14004KT 01/M04 A3027 RMK A01 T00061040  RH  072%=      5-min Rain = 0
KCO1 130627Z 14003KT 01/M04 A3027 RMK A01 T00051039  RH  072%=      5-min Rain = 0
KCO1 130628Z 14003KT 01/M04 A3027 RMK A01 T00051039  RH  073%=      5-min Rain = 0
KCO1 130629Z 14003KT 01/M04 A3027 RMK A01 T00051039  RH  073%=      5-min Rain = 0
KCO1 130630Z 14003KT 00/M04 A3027 RMK A01 T00041038  RH  073%=      5-min Rain = 0
KCO1 130631Z 14003KT 00/M04 A3026 RMK A01 T00041038  RH  074%=      5-min Rain = 0
KCO1 130632Z 14003KT 00/M04 A3026 RMK A01 T00041037  RH  074%=      5-min Rain = 0
KCO1 130633Z 14003KT 00/M04 A3026 RMK A01 T00041037  RH  074%=      5-min Rain = 0
KCO1 130634Z 14003KT 00/M04 A3026 RMK A01 T00041037  RH  074%=      5-min Rain = 0
KCO1 130635Z 14003KT 00/M04 A3026 RMK A01 T00041037  RH  074%=      5-min Rain = 0
KCO1 130636Z 14004KT 00/M04 A3026 RMK A01 T00041037  RH  074%=      5-min Rain = 0
KCO1 130637Z 14004KT 00/M04 A3026 RMK A01 T00041037  RH  074%=      5-min Rain = 0
KCO1 130638Z 14004KT 00/M04 A3026 RMK A01 T00041037  RH  074%=      5-min Rain = 0
KCO1 130639Z 14004KT 00/M04 A3026 RMK A01 T00041037  RH  074%=      5-min Rain = 0
KCO1 130640Z 14004KT 00/M04 A3026 RMK A01 T00041037  RH  074%=      5-min Rain = 0
KCO1 130641Z 14004KT 00/M04 A3026 RMK A01 T00041036  RH  074%=      5-min Rain = 0
KCO1 130642Z 14004KT 00/M04 A3026 RMK A01 T00041036  RH  074%=      5-min Rain = 0
KCO1 130643Z 13003KT 00/M04 A3026 RMK A01 T00041036  RH  075%=      5-min Rain = 0
KCO1 130644Z 13003KT 00/M04 A3026 RMK A01 T00041036  RH  075%=      5-min Rain = 0
KCO1 130645Z 13003KT 00/M04 A3026 RMK A01 T00041035  RH  075%=      5-min Rain = 0
KCO1 130646Z 13003KT 00/M04 A3026 RMK A01 T00041035  RH  075%=      5-min Rain = 0
KCO1 130647Z 13002KT 00/M04 A3026 RMK A01 T00041035  RH  075%=      5-min Rain = 0
KCO1 130648Z 13002KT 00/M04 A3026 RMK A01 T00041035  RH  075%=      5-min Rain = 0
KCO1 130649Z 13002KT 00/M04 A3026 RMK A01 T00041035  RH  075%=      5-min Rain = 0
KCO1 130650Z 13002KT 00/M04 A3026 RMK A01 T00041035  RH  075%=      5-min Rain = 0
KCO1 130651Z 13002KT 00/M04 A3026 RMK A01 T00041035  RH  075%=      5-min Rain = 0
KCO1 130652Z 12002KT 00/M04 A3025 RMK A01 T00041035  RH  075%=      5-min Rain = 0
KCO1 130653Z 12002KT 00/M04 A3025 RMK A01 T00041035  RH  075%=      5-min Rain = 0
KCO1 130654Z 11001KT 00/M04 A3025 RMK A01 T00041035  RH  075%=      5-min Rain = 0
KCO1 130655Z 10002KT 00/M04 A3025 RMK A01 T00041035  RH  075%=      5-min Rain = 0
KCO1 130656Z 09002KT 00/M04 A3025 RMK A01 T00041035  RH  075%=      5-min Rain = 0
KCO1 130657Z 08001KT 00/M04 A3025 RMK A01 T00041035  RH  075%=      5-min Rain = 0
KCO1 130658Z 07001KT 01/M03 A3025 RMK A01 T00051034  RH  075%=      5-min Rain = 0
KCO1 130659Z 08001KT 01/M03 A3025 RMK A01 T00051033  RH  076%=      5-min Rain = 0
KCO1 130700Z 09001KT 01/M03 A3025 RMK A01 T00051033  RH  076%=      5-min Rain = 0
KCO1 130701Z 10002KT 01/M03 A3025 RMK A01 T00051034  RH  075%=      5-min Rain = 0
KCO1 130702Z 10002KT 01/M04 A3025 RMK A01 T00051036  RH  074%=      5-min Rain = 0
KCO1 130703Z 10002KT 01/M04 A3025 RMK A01 T00051036  RH  074%=      5-min Rain = 0
KCO1 130704Z 11002KT 01/M04 A3025 RMK A01 T00051035  RH  074%=      5-min Rain = 0
KCO1 130705Z 10002KT 01/M03 A3025 RMK A01 T00051034  RH  075%=      5-min Rain = 0
KCO1 130706Z 11002KT 01/M03 A3025 RMK A01 T00051034  RH  075%=      5-min Rain = 0
KCO1 130707Z 11003KT 01/M03 A3025 RMK A01 T00051033  RH  076%=      5-min Rain = 0
KCO1 130708Z 11003KT 01/M03 A3025 RMK A01 T00051032  RH  076%=      5-min Rain = 0
KCO1 130709Z 11003KT 00/M03 A3025 RMK A01 T00041032  RH  077%=      5-min Rain = 0
KCO1 130710Z 11003KT 00/M03 A3025 RMK A01 T00041032  RH  077%=      5-min Rain = 0
KCO1 130711Z 11003KT 00/M03 A3025 RMK A01 T00041031  RH  077%=      5-min Rain = 0
KCO1 130712Z 10003KT 00/M03 A3025 RMK A01 T00031032  RH  077%=      5-min Rain = 0
KCO1 130713Z 10003KT 00/M03 A3025 RMK A01 T00041031  RH  077%=      5-min Rain = 0
KCO1 130714Z 10002KT 00/M03 A3025 RMK A01 T00041032  RH  077%=      5-min Rain = 0
KCO1 130715Z 09002KT 00/M03 A3025 RMK A01 T00041032  RH  077%=      5-min Rain = 0
KCO1 130716Z 08002KT 00/M03 A3025 RMK A01 T00041033  RH  077%=      5-min Rain = 0
KCO1 130717Z 08002KT 00/M03 A3024 RMK A01 T00041033  RH  076%=      5-min Rain = 0
KCO1 130718Z 07002KT 00/M03 A3024 RMK A01 T00041033  RH  076%=      5-min Rain = 0
KCO1 130719Z 07002KT 01/M03 A3024 RMK A01 T00051032  RH  076%=      5-min Rain = 0
KCO1 130720Z 07002KT 00/M03 A3024 RMK A01 T00041033  RH  076%=      5-min Rain = 0
KCO1 130721Z 07002KT 01/M03 A3024 RMK A01 T00051034  RH  075%=      5-min Rain = 0
KCO1 130722Z 07002KT 00/M04 A3024 RMK A01 T00041035  RH  075%=      5-min Rain = 0
KCO1 130723Z 07002KT 01/M04 A3024 RMK A01 T00051035  RH  075%=      5-min Rain = 0
KCO1 130724Z 07002KT 01/M04 A3024 RMK A01 T00051036  RH  074%=      5-min Rain = 0
KCO1 130725Z 08003KT 01/M04 A3024 RMK A01 T00051037  RH  074%=      5-min Rain = 0
KCO1 130726Z 07002KT 01/M04 A3024 RMK A01 T00051038  RH  073%=      5-min Rain = 0
KCO1 130727Z 08002KT 01/M04 A3024 RMK A01 T00051037  RH  073%=      5-min Rain = 0
KCO1 130728Z 08002KT 01/M04 A3024 RMK A01 T00051037  RH  073%=      5-min Rain = 0
KCO1 130729Z 09002KT 01/M04 A3024 RMK A01 T00051036  RH  074%=      5-min Rain = 0
KCO1 130730Z 09002KT 01/M04 A3025 RMK A01 T00051035  RH  074%=      5-min Rain = 0
KCO1 130731Z 09003KT 01/M04 A3024 RMK A01 T00051035  RH  074%=      5-min Rain = 0
KCO1 130732Z 10003KT 01/M04 A3024 RMK A01 T00051036  RH  074%=      5-min Rain = 0
KCO1 130733Z 09004KT 01/M04 A3024 RMK A01 T00051035  RH  074%=      5-min Rain = 0
KCO1 130734Z 09004KT 01/M04 A3024 RMK A01 T00051035  RH  075%=      5-min Rain = 0
KCO1 130735Z 09004KT 01/M04 A3024 RMK A01 T00051035  RH  075%=      5-min Rain = 0
KCO1 130736Z 10004KT 01/M04 A3024 RMK A01 T00051035  RH  075%=      5-min Rain = 0
KCO1 130737Z 10004KT 00/M04 A3024 RMK A01 T00041036  RH  075%=      5-min Rain = 0
KCO1 130738Z 10004KT 00/M04 A3024 RMK A01 T00041036  RH  074%=      5-min Rain = 0
KCO1 130739Z 10004KT 00/M04 A3024 RMK A01 T00041036  RH  074%=      5-min Rain = 0
KCO1 130740Z 10004KT 01/M04 A3024 RMK A01 T00051036  RH  074%=      5-min Rain = 0
KCO1 130741Z 10004KT 00/M04 A3024 RMK A01 T00041036  RH  074%=      5-min Rain = 0
KCO1 130742Z 10004KT 00/M04 A3024 RMK A01 T00041036  RH  074%=      5-min Rain = 0
KCO1 130743Z 10004KT 00/M04 A3024 RMK A01 T00041036  RH  074%=      5-min Rain = 0
KCO1 130744Z 10004KT 01/M04 A3024 RMK A01 T00051037  RH  074%=      5-min Rain = 0
KCO1 130745Z 10004KT 01/M04 A3024 RMK A01 T00051037  RH  074%=      5-min Rain = 0
KCO1 130746Z 10004KT 01/M04 A3024 RMK A01 T00051037  RH  073%=      5-min Rain = 0
KCO1 130747Z 10003KT 01/M04 A3024 RMK A01 T00051037  RH  073%=      5-min Rain = 0
KCO1 130748Z 10004KT 01/M04 A3024 RMK A01 T00051037  RH  073%=      5-min Rain = 0
KCO1 130749Z 10003KT 01/M04 A3024 RMK A01 T00051036  RH  074%=      5-min Rain = 0
KCO1 130750Z 10004KT 01/M04 A3024 RMK A01 T00061036  RH  074%=      5-min Rain = 0
KCO1 130751Z 10004KT 01/M04 A3024 RMK A01 T00051036  RH  074%=      5-min Rain = 0
KCO1 130752Z 10004KT 01/M04 A3024 RMK A01 T00061036  RH  074%=      5-min Rain = 0
KCO1 130753Z 10004KT 01/M04 A3024 RMK A01 T00051036  RH  074%=      5-min Rain = 0
KCO1 130754Z 10004KT 01/M04 A3024 RMK A01 T00051037  RH  073%=      5-min Rain = 0
KCO1 130755Z 10004KT 01/M04 A3024 RMK A01 T00061037  RH  073%=      5-min Rain = 0
KCO1 130756Z 10004KT 01/M04 A3024 RMK A01 T00061037  RH  073%=      5-min Rain = 0
KCO1 130757Z 10004KT 01/M04 A3024 RMK A01 T00061037  RH  073%=      5-min Rain = 0
KCO1 130758Z 10004KT 01/M04 A3024 RMK A01 T00061037  RH  073%=      5-min Rain = 0
KCO1 130759Z 10004KT 01/M04 A3024 RMK A01 T00061037  RH  073%=      5-min Rain = 0
KCO1 130800Z 10004KT 01/M04 A3024 RMK A01 T00061038  RH  073%=      5-min Rain = 0
KCO1 130801Z 10004KT 01/M04 A3024 RMK A01 T00061038  RH  072%=      5-min Rain = 0
KCO1 130802Z 10004KT 01/M04 A3023 RMK A01 T00071037  RH  073%=      5-min Rain = 0
KCO1 130803Z 10004KT 01/M04 A3023 RMK A01 T00061037  RH  073%=      5-min Rain = 0
KCO1 130804Z 10003KT 01/M04 A3023 RMK A01 T00061038  RH  073%=      5-min Rain = 0
KCO1 130805Z 10004KT 01/M04 A3023 RMK A01 T00061037  RH  073%=      5-min Rain = 0
KCO1 130806Z 10004KT 01/M04 A3023 RMK A01 T00061037  RH  073%=      5-min Rain = 0
KCO1 130807Z 10004KT 01/M04 A3023 RMK A01 T00061037  RH  073%=      5-min Rain = 0
KCO1 130808Z 11005KT 01/M04 A3023 RMK A01 T00061038  RH  072%=      5-min Rain = 0
KCO1 130809Z 11004KT 01/M04 A3023 RMK A01 T00061038  RH  072%=      5-min Rain = 0
KCO1 130810Z 10004KT 01/M04 A3023 RMK A01 T00061038  RH  072%=      5-min Rain = 0
KCO1 130811Z 10005KT 01/M04 A3023 RMK A01 T00061039  RH  072%=      5-min Rain = 0
KCO1 130812Z 10004KT 01/M04 A3023 RMK A01 T00061038  RH  072%=      5-min Rain = 0
KCO1 130813Z 10003KT 01/M04 A3023 RMK A01 T00061038  RH  072%=      5-min Rain = 0
KCO1 130814Z 10004KT 01/M04 A3023 RMK A01 T00071037  RH  073%=      5-min Rain = 0
KCO1 130815Z 10004KT 01/M04 A3023 RMK A01 T00071037  RH  073%=      5-min Rain = 0
KCO1 130816Z 09004KT 01/M04 A3023 RMK A01 T00071036  RH  073%=      5-min Rain = 0
KCO1 130817Z 09004KT 01/M04 A3023 RMK A01 T00071037  RH  073%=      5-min Rain = 0
KCO1 130818Z 10003KT 01/M04 A3023 RMK A01 T00071037  RH  073%=      5-min Rain = 0
KCO1 130819Z 09003KT 01/M04 A3023 RMK A01 T00071036  RH  073%=      5-min Rain = 0
KCO1 130820Z 08003KT 01/M04 A3023 RMK A01 T00071037  RH  073%=      5-min Rain = 0
KCO1 130821Z 09003KT 01/M04 A3023 RMK A01 T00071037  RH  073%=      5-min Rain = 0
KCO1 130822Z 08003KT 01/M04 A3022 RMK A01 T00071037  RH  072%=      5-min Rain = 0
KCO1 130823Z 09003KT 01/M04 A3022 RMK A01 T00071038  RH  072%=      5-min Rain = 0
KCO1 130824Z 08003KT 01/M04 A3022 RMK A01 T00071037  RH  073%=      5-min Rain = 0
KCO1 130825Z 08004KT 01/M04 A3022 RMK A01 T00071036  RH  073%=      5-min Rain = 0
KCO1 130826Z 08004KT 01/M04 A3022 RMK A01 T00071036  RH  073%=      5-min Rain = 0
KCO1 130827Z 09004KT 01/M04 A3022 RMK A01 T00071036  RH  073%=      5-min Rain = 0
KCO1 130828Z 08004KT 01/M04 A3022 RMK A01 T00071035  RH  073%=      5-min Rain = 0
KCO1 130829Z 09004KT 01/M04 A3022 RMK A01 T00071036  RH  073%=      5-min Rain = 0
KCO1 130830Z 08004KT 01/M04 A3022 RMK A01 T00061036  RH  073%=      5-min Rain = 0
KCO1 130831Z 08004KT 01/M04 A3022 RMK A01 T00071036  RH  073%=      5-min Rain = 0
KCO1 130832Z 08003KT 01/M04 A3022 RMK A01 T00071036  RH  073%=      5-min Rain = 0
KCO1 130833Z 08003KT 01/M04 A3022 RMK A01 T00071036  RH  073%=      5-min Rain = 0
KCO1 130834Z 07002KT 01/M04 A3022 RMK A01 T00071035  RH  073%=      5-min Rain = 0
KCO1 130835Z 06002KT 01/M04 A3022 RMK A01 T00071035  RH  073%=      5-min Rain = 0
KCO1 130836Z 08002KT 01/M04 A3022 RMK A01 T00071035  RH  074%=      5-min Rain = 0
KCO1 130837Z 08003KT 01/M03 A3022 RMK A01 T00071034  RH  074%=      5-min Rain = 0
KCO1 130838Z 08003KT 01/M03 A3021 RMK A01 T00071034  RH  074%=      5-min Rain = 0
KCO1 130839Z 07003KT 01/M03 A3021 RMK A01 T00071034  RH  074%=      5-min Rain = 0
KCO1 130840Z 07003KT 01/M03 A3021 RMK A01 T00071033  RH  075%=      5-min Rain = 0
KCO1 130841Z 08003KT 01/M03 A3021 RMK A01 T00071033  RH  075%=      5-min Rain = 0
KCO1 130842Z 08004KT 01/M03 A3021 RMK A01 T00071033  RH  075%=      5-min Rain = 0
KCO1 130843Z 08004KT 01/M03 A3021 RMK A01 T00071033  RH  075%=      5-min Rain = 0
KCO1 130844Z 09005KT 01/M03 A3021 RMK A01 T00071033  RH  075%=      5-min Rain = 0
KCO1 130845Z 08004KT 01/M03 A3021 RMK A01 T00061034  RH  074%=      5-min Rain = 0
KCO1 130846Z 09004KT 01/M04 A3021 RMK A01 T00061035  RH  074%=      5-min Rain = 0
KCO1 130847Z 08004KT 01/M04 A3021 RMK A01 T00061035  RH  074%=      5-min Rain = 0
KCO1 130848Z 08004KT 01/M04 A302 RMK A01 T00061035  RH  074%=      5-min Rain = 0
KCO1 130849Z 08004KT 01/M04 A302 RMK A01 T00061035  RH  074%=      5-min Rain = 0
KCO1 130850Z 08003KT 01/M03 A302 RMK A01 T00061034  RH  074%=      5-min Rain = 0
KCO1 130851Z 07003KT 01/M03 A302 RMK A01 T00061033  RH  075%=      5-min Rain = 0
KCO1 130852Z 07003KT 01/M03 A302 RMK A01 T00061033  RH  075%=      5-min Rain = 0
KCO1 130853Z 07003KT 01/M03 A302 RMK A01 T00061033  RH  075%=      5-min Rain = 0
KCO1 130854Z 08002KT 01/M03 A302 RMK A01 T00061032  RH  075%=      5-min Rain = 0
KCO1 130855Z 08003KT 01/M03 A302 RMK A01 T00061032  RH  076%=      5-min Rain = 0
KCO1 130856Z 08003KT 01/M03 A302 RMK A01 T00061032  RH  076%=      5-min Rain = 0
KCO1 130857Z 08003KT 01/M03 A302 RMK A01 T00061032  RH  075%=      5-min Rain = 0
KCO1 130858Z 09003KT 01/M03 A302 RMK A01 T00061032  RH  076%=      5-min Rain = 0
KCO1 130859Z 09004KT 01/M03 A302 RMK A01 T00061031  RH  076%=      5-min Rain = 0
KCO1 130900Z 09004KT 01/M03 A302 RMK A01 T00061031  RH  076%=      5-min Rain = 0
KCO1 130901Z 09004KT 01/M03 A302 RMK A01 T00061032  RH  076%=      5-min Rain = 0
KCO1 130902Z 09004KT 01/M03 A302 RMK A01 T00061032  RH  076%=      5-min Rain = 0
KCO1 130903Z 09005KT 01/M03 A302 RMK A01 T00061032  RH  076%=      5-min Rain = 0
KCO1 130904Z 09005KT 01/M03 A3019 RMK A01 T00061032  RH  076%=      5-min Rain = 0
KCO1 130905Z 08005KT 01/M03 A3019 RMK A01 T00071031  RH  076%=      5-min Rain = 0
KCO1 130906Z 08005KT 01/M03 A3019 RMK A01 T00061031  RH  076%=      5-min Rain = 0
KCO1 130907Z 08005KT 01/M03 A3019 RMK A01 T00071031  RH  076%=      5-min Rain = 0
KCO1 130908Z 09005KT 01/M03 A3019 RMK A01 T00061031  RH  076%=      5-min Rain = 0
KCO1 130909Z 09005KT 01/M03 A3019 RMK A01 T00061031  RH  076%=      5-min Rain = 0
KCO1 130910Z 09005KT 01/M03 A3019 RMK A01 T00061031  RH  076%=      5-min Rain = 0
KCO1 130911Z 09006KT 01/M03 A3019 RMK A01 T00061031  RH  076%=      5-min Rain = 0
KCO1 130912Z 09006KT 01/M03 A3019 RMK A01 T00061031  RH  076%=      5-min Rain = 0
KCO1 130913Z 09005KT 01/M03 A3018 RMK A01 T00061031  RH  076%=      5-min Rain = 0
KCO1 130914Z 09005KT 01/M03 A3018 RMK A01 T00061030  RH  076%=      5-min Rain = 0
KCO1 130915Z 08005KT 01/M03 A3018 RMK A01 T00061031  RH  076%=      5-min Rain = 0
KCO1 130916Z 09004KT 01/M03 A3018 RMK A01 T00061030  RH  076%=      5-min Rain = 0
KCO1 130917Z 08004KT 01/M03 A3018 RMK A01 T00071030  RH  077%=      5-min Rain = 0
KCO1 130918Z 08005KT 01/M03 A3018 RMK A01 T00071029  RH  077%=      5-min Rain = 0
KCO1 130919Z 08004KT 01/M03 A3018 RMK A01 T00071029  RH  077%=      5-min Rain = 0
KCO1 130920Z 08005KT 01/M03 A3018 RMK A01 T00071028  RH  077%=      5-min Rain = 0
KCO1 130921Z 08005KT 01/M03 A3018 RMK A01 T00071028  RH  078%=      5-min Rain = 0
KCO1 130922Z 08005KT 01/M03 A3018 RMK A01 T00071028  RH  077%=      5-min Rain = 0
KCO1 130923Z 08005KT 01/M03 A3018 RMK A01 T00071028  RH  077%=      5-min Rain = 0
KCO1 130924Z 08005KT 01/M03 A3018 RMK A01 T00071028  RH  077%=      5-min Rain = 0
KCO1 130925Z 09005KT 01/M03 A3018 RMK A01 T00071028  RH  077%=      5-min Rain = 0
KCO1 130926Z 09005KT 01/M03 A3018 RMK A01 T00071028  RH  077%=      5-min Rain = 0
KCO1 130927Z 09006KT 01/M03 A3018 RMK A01 T00071028  RH  077%=      5-min Rain = 0
KCO1 130928Z 09006KT 01/M03 A3017 RMK A01 T00071028  RH  077%=      5-min Rain = 0
KCO1 130929Z 09005KT 01/M03 A3017 RMK A01 T00071028  RH  077%=      5-min Rain = 0
KCO1 130930Z 09005KT 01/M03 A3017 RMK A01 T00071028  RH  077%=      5-min Rain = 0
KCO1 130931Z 09006KT 01/M03 A3017 RMK A01 T00071028  RH  077%=      5-min Rain = 0
KCO1 130932Z 08005KT 01/M03 A3017 RMK A01 T00071029  RH  077%=      5-min Rain = 0
KCO1 130933Z 08006KT 01/M03 A3017 RMK A01 T00071029  RH  077%=      5-min Rain = 0
KCO1 130934Z 08005KT 01/M03 A3017 RMK A01 T00071029  RH  077%=      5-min Rain = 0
KCO1 130935Z 09005KT 01/M03 A3017 RMK A01 T00071029  RH  077%=      5-min Rain = 0
KCO1 130936Z 08005KT 01/M03 A3017 RMK A01 T00071029  RH  077%=      5-min Rain = 0
KCO1 130937Z 08005KT 01/M03 A3017 RMK A01 T00071028  RH  077%=      5-min Rain = 0
KCO1 130938Z 08005KT 01/M03 A3017 RMK A01 T00071028  RH  077%=      5-min Rain = 0
KCO1 130939Z 08004KT 01/M03 A3017 RMK A01 T00081028  RH  077%=      5-min Rain = 0
KCO1 130940Z 08004KT 01/M03 A3017 RMK A01 T00081028  RH  077%=      5-min Rain = 0
KCO1 130941Z 08005KT 01/M03 A3017 RMK A01 T00081028  RH  077%=      5-min Rain = 0
KCO1 130942Z 08004KT 01/M03 A3017 RMK A01 T00081028  RH  077%=      5-min Rain = 0
KCO1 130943Z 09005KT 01/M03 A3017 RMK A01 T00081029  RH  077%=      5-min Rain = 0
KCO1 130944Z 09005KT 01/M03 A3017 RMK A01 T00081029  RH  077%=      5-min Rain = 0
KCO1 130945Z 09004KT 01/M03 A3017 RMK A01 T00081029  RH  077%=      5-min Rain = 0
KCO1 130946Z 09003KT 01/M03 A3017 RMK A01 T00081029  RH  077%=      5-min Rain = 0
KCO1 130947Z 09004KT 01/M03 A3017 RMK A01 T00081028  RH  077%=      5-min Rain = 0
KCO1 130948Z 09004KT 01/M03 A3017 RMK A01 T00081028  RH  077%=      5-min Rain = 0
KCO1 130949Z 09003KT 01/M03 A3017 RMK A01 T00081028  RH  077%=      5-min Rain = 0
KCO1 130950Z 09004KT 01/M03 A3017 RMK A01 T00081028  RH  077%=      5-min Rain = 0
KCO1 130951Z 09004KT 01/M03 A3017 RMK A01 T00081028  RH  077%=      5-min Rain = 0
KCO1 130952Z 08004KT 01/M03 A3017 RMK A01 T00081028  RH  077%=      5-min Rain = 0
KCO1 130953Z 08004KT 01/M03 A3017 RMK A01 T00081027  RH  077%=      5-min Rain = 0
KCO1 130954Z 07004KT 01/M03 A3017 RMK A01 T00081027  RH  077%=      5-min Rain = 0
KCO1 130955Z 07004KT 01/M03 A3017 RMK A01 T00081026  RH  078%=      5-min Rain = 0
KCO1 130956Z 06003KT 01/M03 A3016 RMK A01 T00081026  RH  078%=      5-min Rain = 0
KCO1 130957Z 05003KT 01/M03 A3016 RMK A01 T00091026  RH  078%=      5-min Rain = 0
KCO1 130958Z 05004KT 01/M03 A3016 RMK A01 T00081025  RH  078%=      5-min Rain = 0
KCO1 130959Z 05005KT 01/M03 A3016 RMK A01 T00091025  RH  078%=      5-min Rain = 0
KCO1 131000Z 06005KT 01/M03 A3016 RMK A01 T00091025  RH  078%=      5-min Rain = 0
KCO1 131001Z 06004KT 01/M03 A3016 RMK A01 T00091025  RH  078%=      5-min Rain = 0
KCO1 131002Z 06004KT 01/M03 A3016 RMK A01 T00091025  RH  078%=      5-min Rain = 0
KCO1 131003Z 06005KT 01/M02 A3016 RMK A01 T00091024  RH  078%=      5-min Rain = 0
KCO1 131004Z 06004KT 01/M02 A3016 RMK A01 T00091024  RH  078%=      5-min Rain = 0
KCO1 131005Z 07003KT 01/M02 A3016 RMK A01 T00101024  RH  078%=      5-min Rain = 0
KCO1 131006Z 07003KT 01/M02 A3016 RMK A01 T00091024  RH  079%=      5-min Rain = 0
KCO1 131007Z 06004KT 01/M02 A3016 RMK A01 T00091023  RH  079%=      5-min Rain = 0
KCO1 131008Z 06003KT 01/M02 A3016 RMK A01 T00091023  RH  079%=      5-min Rain = 0
KCO1 131009Z 06002KT 01/M02 A3016 RMK A01 T00101023  RH  079%=      5-min Rain = 0
KCO1 131010Z 07003KT 01/M02 A3016 RMK A01 T00091022  RH  079%=      5-min Rain = 0
KCO1 131011Z 07003KT 01/M02 A3016 RMK A01 T00091022  RH  080%=      5-min Rain = 0
KCO1 131012Z 07003KT 01/M02 A3016 RMK A01 T00091022  RH  080%=      5-min Rain = 0
KCO1 131013Z 07003KT 01/M02 A3016 RMK A01 T00091022  RH  080%=      5-min Rain = 0
KCO1 131014Z 07003KT 01/M02 A3016 RMK A01 T00091022  RH  080%=      5-min Rain = 0
KCO1 131015Z 07003KT 01/M02 A3016 RMK A01 T00091022  RH  080%=      5-min Rain = 0
KCO1 131016Z 06004KT 01/M02 A3016 RMK A01 T00091022  RH  080%=      5-min Rain = 0
KCO1 131017Z 06003KT 01/M02 A3016 RMK A01 T00081022  RH  080%=      5-min Rain = 0
KCO1 131018Z 06003KT 01/M02 A3016 RMK A01 T00091022  RH  080%=      5-min Rain = 0
KCO1 131019Z 05003KT 01/M02 A3016 RMK A01 T00081022  RH  080%=      5-min Rain = 0
KCO1 131020Z 06003KT 01/M02 A3016 RMK A01 T00091022  RH  080%=      5-min Rain = 0
KCO1 131021Z 06003KT 01/M02 A3016 RMK A01 T00091022  RH  080%=      5-min Rain = 0
KCO1 131022Z 06003KT 01/M02 A3016 RMK A01 T00091022  RH  080%=      5-min Rain = 0
KCO1 131023Z 05004KT 01/M02 A3016 RMK A01 T00081022  RH  080%=      5-min Rain = 0
KCO1 131024Z 05004KT 01/M02 A3015 RMK A01 T00081022  RH  080%=      5-min Rain = 0
KCO1 131025Z 06005KT 01/M02 A3015 RMK A01 T00081022  RH  080%=      5-min Rain = 0
KCO1 131026Z 06005KT 01/M02 A3015 RMK A01 T00081022  RH  080%=      5-min Rain = 0
KCO1 131027Z 06005KT 01/M02 A3015 RMK A01 T00091022  RH  080%=      5-min Rain = 0
KCO1 131028Z 07006KT 01/M02 A3015 RMK A01 T00091022  RH  080%=      5-min Rain = 0
KCO1 131029Z 07005KT 01/M02 A3015 RMK A01 T00091022  RH  080%=      5-min Rain = 0
KCO1 131030Z 07005KT 01/M02 A3016 RMK A01 T00081022  RH  080%=      5-min Rain = 0
KCO1 131031Z 08005KT 01/M02 A3016 RMK A01 T00091022  RH  080%=      5-min Rain = 0
KCO1 131032Z 08005KT 01/M02 A3016 RMK A01 T00091022  RH  080%=      5-min Rain = 0
KCO1 131033Z 07004KT 01/M02 A3016 RMK A01 T00081022  RH  080%=      5-min Rain = 0
KCO1 131034Z 07005KT 01/M02 A3016 RMK A01 T00091022  RH  080%=      5-min Rain = 0
KCO1 131035Z 06005KT 01/M02 A3015 RMK A01 T00091022  RH  080%=      5-min Rain = 0
KCO1 131036Z 06005KT 01/M02 A3015 RMK A01 T00091022  RH  080%=      5-min Rain = 0
KCO1 131037Z 06005KT 01/M02 A3015 RMK A01 T00091022  RH  080%=      5-min Rain = 0
KCO1 131038Z 06004KT 01/M02 A3015 RMK A01 T00081023  RH  080%=      5-min Rain = 0
KCO1 131039Z 06005KT 01/M02 A3015 RMK A01 T00091023  RH  080%=      5-min Rain = 0
KCO1 131040Z 05004KT 01/M02 A3015 RMK A01 T00081023  RH  080%=      5-min Rain = 0
KCO1 131041Z 05004KT 01/M02 A3015 RMK A01 T00091022  RH  080%=      5-min Rain = 0
KCO1 131042Z 06004KT 01/M02 A3015 RMK A01 T00091022  RH  080%=      5-min Rain = 0
KCO1 131043Z 06004KT 01/M02 A3015 RMK A01 T00091022  RH  080%=      5-min Rain = 0
KCO1 131044Z 06004KT 01/M02 A3015 RMK A01 T00091022  RH  080%=      5-min Rain = 0
KCO1 131045Z 06004KT 01/M02 A3015 RMK A01 T00091022  RH  080%=      5-min Rain = 0
KCO1 131046Z 07004KT 01/M02 A3015 RMK A01 T00091022  RH  080%=      5-min Rain = 0
KCO1 131047Z 07004KT 01/M02 A3015 RMK A01 T00101021  RH  080%=      5-min Rain = 0
KCO1 131048Z 06004KT 01/M02 A3015 RMK A01 T00091022  RH  080%=      5-min Rain = 0
KCO1 131049Z 06004KT 01/M02 A3015 RMK A01 T00091022  RH  080%=      5-min Rain = 0
KCO1 131050Z 06004KT 01/M02 A3015 RMK A01 T00091021  RH  080%=      5-min Rain = 0
KCO1 131051Z 06004KT 01/M02 A3014 RMK A01 T00101021  RH  080%=      5-min Rain = 0
KCO1 131052Z 06004KT 01/M02 A3014 RMK A01 T00101020  RH  080%=      5-min Rain = 0
KCO1 131053Z 07005KT 01/M02 A3014 RMK A01 T00101021  RH  080%=      5-min Rain = 0
KCO1 131054Z 07005KT 01/M02 A3014 RMK A01 T00101021  RH  080%=      5-min Rain = 0
KCO1 131055Z 07005KT 01/M02 A3014 RMK A01 T00101021  RH  080%=      5-min Rain = 0
KCO1 131056Z 07005KT 01/M02 A3014 RMK A01 T00101021  RH  080%=      5-min Rain = 0
KCO1 131057Z 08005KT 01/M02 A3014 RMK A01 T00101021  RH  080%=      5-min Rain = 0
KCO1 131058Z 07006KT 01/M02 A3014 RMK A01 T00101021  RH  080%=      5-min Rain = 0
KCO1 131059Z 07005KT 01/M02 A3014 RMK A01 T00101021  RH  080%=      5-min Rain = 0
KCO1 131100Z 07005KT 01/M02 A3013 RMK A01 T00101021  RH  080%=      5-min Rain = 0
KCO1 131101Z 07005KT 01/M02 A3013 RMK A01 T00101021  RH  080%=      5-min Rain = 0
KCO1 131102Z 07005KT 01/M02 A3013 RMK A01 T00101021  RH  080%=      5-min Rain = 0
KCO1 131103Z 06006KT 01/M02 A3013 RMK A01 T00101021  RH  080%=      5-min Rain = 0
KCO1 131104Z 06005KT 01/M02 A3013 RMK A01 T00101022  RH  079%=      5-min Rain = 0
KCO1 131105Z 06005KT 01/M02 A3013 RMK A01 T00111022  RH  079%=      5-min Rain = 0
KCO1 131106Z 06006KT 01/M02 A3012 RMK A01 T00111022  RH  079%=      5-min Rain = 0
KCO1 131107Z 06005KT 01/M02 A3012 RMK A01 T00111021  RH  079%=      5-min Rain = 0
KCO1 131108Z 05005KT 01/M02 A3012 RMK A01 T00111021  RH  079%=      5-min Rain = 0
KCO1 131109Z 06005KT 01/M02 A3012 RMK A01 T00111021  RH  079%=      5-min Rain = 0
KCO1 131110Z 06006KT 01/M02 A3013 RMK A01 T00111020  RH  079%=      5-min Rain = 0
KCO1 131111Z 07005KT 01/M02 A3013 RMK A01 T00111020  RH  079%=      5-min Rain = 0
KCO1 131112Z 08006KT 01/M02 A3013 RMK A01 T00111021  RH  079%=      5-min Rain = 0
KCO1 131113Z 08005KT 01/M02 A3013 RMK A01 T00121020  RH  079%=      5-min Rain = 0
KCO1 131114Z 09005KT 01/M02 A3013 RMK A01 T00121020  RH  079%=      5-min Rain = 0
KCO1 131115Z 09006KT 01/M02 A3013 RMK A01 T00121020  RH  080%=      5-min Rain = 0
KCO1 131116Z 09005KT 01/M02 A3013 RMK A01 T00121019  RH  080%=      5-min Rain = 0
KCO1 131117Z 10006KT 01/M02 A3013 RMK A01 T00121020  RH  080%=      5-min Rain = 0
KCO1 131118Z 09006KT 01/M02 A3013 RMK A01 T00121019  RH  080%=      5-min Rain = 0
KCO1 131119Z 09006KT 01/M02 A3013 RMK A01 T00121019  RH  080%=      5-min Rain = 0
KCO1 131120Z 09005KT 01/M02 A3013 RMK A01 T00121019  RH  080%=      5-min Rain = 0
KCO1 131121Z 09005KT 01/M02 A3013 RMK A01 T00121019  RH  080%=      5-min Rain = 0
KCO1 131122Z 09006KT 01/M02 A3013 RMK A01 T00121019  RH  080%=      5-min Rain = 0
KCO1 131123Z 09006KT 01/M02 A3013 RMK A01 T00121019  RH  080%=      5-min Rain = 0
KCO1 131124Z 09006KT 01/M02 A3013 RMK A01 T00121020  RH  079%=      5-min Rain = 0
KCO1 131125Z 09006KT 01/M02 A3013 RMK A01 T00121020  RH  079%=      5-min Rain = 0
KCO1 131126Z 09006KT 01/M02 A3013 RMK A01 T00121020  RH  079%=      5-min Rain = 0
KCO1 131127Z 09005KT 01/M02 A3013 RMK A01 T00121021  RH  079%=      5-min Rain = 0
KCO1 131128Z 10006KT 01/M02 A3013 RMK A01 T00121020  RH  079%=      5-min Rain = 0
KCO1 131129Z 10006KT 01/M02 A3013 RMK A01 T00121020  RH  079%=      5-min Rain = 0
KCO1 131130Z 10007KT 01/M02 A3013 RMK A01 T00121020  RH  079%=      5-min Rain = 0
KCO1 131131Z 10006KT 01/M02 A3013 RMK A01 T00121020  RH  079%=      5-min Rain = 0
KCO1 131132Z 09005KT 01/M02 A3013 RMK A01 T00121020  RH  079%=      5-min Rain = 0
KCO1 131133Z 09005KT 01/M02 A3013 RMK A01 T00111020  RH  080%=      5-min Rain = 0
KCO1 131134Z 09004KT 01/M02 A3013 RMK A01 T00111020  RH  080%=      5-min Rain = 0
KCO1 131135Z 09005KT 01/M02 A3013 RMK A01 T00111020  RH  080%=      5-min Rain = 0
KCO1 131136Z 09004KT 01/M02 A3013 RMK A01 T00111020  RH  080%=      5-min Rain = 0
KCO1 131137Z 09005KT 01/M02 A3013 RMK A01 T00111020  RH  080%=      5-min Rain = 0
KCO1 131138Z 09005KT 01/M02 A3013 RMK A01 T00111020  RH  080%=      5-min Rain = 0
KCO1 131139Z 09005KT 01/M02 A3013 RMK A01 T00111019  RH  080%=      5-min Rain = 0
KCO1 131140Z 10005KT 01/M02 A3013 RMK A01 T00111020  RH  080%=      5-min Rain = 0
KCO1 131141Z 10005KT 01/M02 A3013 RMK A01 T00111020  RH  080%=      5-min Rain = 0
KCO1 131142Z 09005KT 01/M02 A3013 RMK A01 T00111020  RH  080%=      5-min Rain = 0
KCO1 131143Z 09005KT 01/M02 A3013 RMK A01 T00111020  RH  080%=      5-min Rain = 0
KCO1 131144Z 09004KT 01/M02 A3012 RMK A01 T00111020  RH  080%=      5-min Rain = 0
KCO1 131145Z 09003KT 01/M02 A3012 RMK A01 T00111020  RH  080%=      5-min Rain = 0
KCO1 131146Z 08005KT 01/M02 A3012 RMK A01 T00111020  RH  080%=      5-min Rain = 0
KCO1 131147Z 09004KT 01/M02 A3012 RMK A01 T00111021  RH  079%=      5-min Rain = 0
KCO1 131148Z 09003KT 01/M02 A3012 RMK A01 T00111021  RH  079%=      5-min Rain = 0
KCO1 131149Z 08002KT 01/M02 A3012 RMK A01 T00111021  RH  079%=      5-min Rain = 0
KCO1 131150Z 08001KT 01/M02 A3012 RMK A01 T00111021  RH  079%=      5-min Rain = 0
KCO1 131151Z 02001KT 01/M02 A3012 RMK A01 T00111021  RH  079%=      5-min Rain = 0
KCO1 131152Z 03000KT 01/M02 A3012 RMK A01 T00111021  RH  079%=      5-min Rain = 0
KCO1 131153Z 02000KT 01/M02 A3012 RMK A01 T00111021  RH  079%=      5-min Rain = 0
KCO1 131154Z 02000KT 01/M02 A3012 RMK A01 T00111021  RH  079%=      5-min Rain = 0
KCO1 131155Z 00000KT 01/M02 A3012 RMK A01 T00111021  RH  079%=      5-min Rain = 0
KCO1 131156Z 02000KT 01/M02 A3012 RMK A01 T00111021  RH  079%=      5-min Rain = 0
KCO1 131157Z 11000KT 01/M02 A3012 RMK A01 T00111021  RH  079%=      5-min Rain = 0
KCO1 131158Z 09001KT 01/M02 A3012 RMK A01 T00111021  RH  079%=      5-min Rain = 0
KCO1 131159Z 08001KT 01/M02 A3012 RMK A01 T00111021  RH  079%=      5-min Rain = 0
KCO1 131200Z 09002KT 01/M02 A3012 RMK A01 T00111022  RH  079%=      5-min Rain = 0
KCO1 131201Z 10002KT 01/M02 A3012 RMK A01 T00111022  RH  079%=      5-min Rain = 0
KCO1 131202Z 10002KT 01/M02 A3012 RMK A01 T00111021  RH  079%=      5-min Rain = 0
KCO1 131203Z 11004KT 01/M02 A3012 RMK A01 T00111021  RH  079%=      5-min Rain = 0
KCO1 131204Z 11003KT 01/M02 A3012 RMK A01 T00111021  RH  079%=      5-min Rain = 0
KCO1 131205Z 11004KT 01/M02 A3012 RMK A01 T00111021  RH  079%=      5-min Rain = 0
KCO1 131206Z 11004KT 01/M02 A3012 RMK A01 T00111021  RH  079%=      5-min Rain = 0
KCO1 131207Z 10004KT 01/M02 A3012 RMK A01 T00111021  RH  079%=      5-min Rain = 0
KCO1 131208Z 09004KT 01/M02 A3012 RMK A01 T00111021  RH  079%=      5-min Rain = 0
KCO1 131209Z 10003KT 01/M02 A3012 RMK A01 T00111021  RH  079%=      5-min Rain = 0
KCO1 131210Z 10003KT 01/M02 A3011 RMK A01 T00111021  RH  079%=      5-min Rain = 0
KCO1 131211Z 09004KT 01/M02 A3011 RMK A01 T00111021  RH  079%=      5-min Rain = 0
KCO1 131212Z 09004KT 01/M02 A3011 RMK A01 T00111021  RH  079%=      5-min Rain = 0
KCO1 131213Z 09003KT 01/M02 A3011 RMK A01 T00111021  RH  079%=      5-min Rain = 0
KCO1 131214Z 09003KT 01/M02 A3011 RMK A01 T00111021  RH  079%=      5-min Rain = 0
KCO1 131215Z 09003KT 01/M02 A3011 RMK A01 T00111021  RH  079%=      5-min Rain = 0
KCO1 131216Z 09004KT 01/M02 A3011 RMK A01 T00111021  RH  079%=      5-min Rain = 0
KCO1 131217Z 09003KT 01/M02 A3011 RMK A01 T00121021  RH  079%=      5-min Rain = 0
KCO1 131218Z 09003KT 01/M02 A3011 RMK A01 T00121021  RH  079%=      5-min Rain = 0
KCO1 131219Z 10003KT 01/M02 A3011 RMK A01 T00121022  RH  078%=      5-min Rain = 0
KCO1 131220Z 10003KT 01/M02 A3011 RMK A01 T00121022  RH  078%=      5-min Rain = 0
KCO1 131221Z 10002KT 01/M02 A3011 RMK A01 T00121022  RH  078%=      5-min Rain = 0
KCO1 131222Z 10002KT 01/M02 A3011 RMK A01 T00121022  RH  078%=      5-min Rain = 0
KCO1 131223Z 11002KT 01/M02 A3011 RMK A01 T00121021  RH  078%=      5-min Rain = 0
KCO1 131224Z 12001KT 01/M02 A3011 RMK A01 T00121021  RH  079%=      5-min Rain = 0
KCO1 131225Z 16000KT 01/M02 A3011 RMK A01 T00121021  RH  078%=      5-min Rain = 0
KCO1 131226Z 26001KT 01/M02 A3011 RMK A01 T00121021  RH  078%=      5-min Rain = 0
KCO1 131227Z 27002KT 01/M02 A3012 RMK A01 T00121021  RH  078%=      5-min Rain = 0
KCO1 131228Z 27002KT 01/M02 A3012 RMK A01 T00131021  RH  078%=      5-min Rain = 0
KCO1 131229Z 28002KT 01/M02 A3012 RMK A01 T00141020  RH  078%=      5-min Rain = 0
KCO1 131230Z 27002KT 01/M02 A3012 RMK A01 T00141021  RH  078%=      5-min Rain = 0
KCO1 131231Z 28002KT 01/M02 A3012 RMK A01 T00141021  RH  078%=      5-min Rain = 0
KCO1 131232Z 26002KT 01/M02 A3012 RMK A01 T00141021  RH  077%=      5-min Rain = 0
KCO1 131233Z 26002KT 02/M02 A3012 RMK A01 T00151021  RH  077%=      5-min Rain = 0
KCO1 131234Z 26002KT 02/M02 A3012 RMK A01 T00151021  RH  077%=      5-min Rain = 0
KCO1 131235Z 27002KT 02/M02 A3012 RMK A01 T00151020  RH  077%=      5-min Rain = 0
KCO1 131236Z 26001KT 02/M02 A3012 RMK A01 T00151019  RH  078%=      5-min Rain = 0
KCO1 131237Z 28001KT 02/M02 A3011 RMK A01 T00161019  RH  078%=      5-min Rain = 0
KCO1 131238Z 30001KT 02/M02 A3011 RMK A01 T00161020  RH  077%=      5-min Rain = 0
KCO1 131239Z 35001KT 02/M02 A3011 RMK A01 T00161021  RH  077%=      5-min Rain = 0
KCO1 131240Z 35002KT 02/M02 A3011 RMK A01 T00161022  RH  076%=      5-min Rain = 0
KCO1 131241Z 35002KT 02/M02 A3012 RMK A01 T00161021  RH  076%=      5-min Rain = 0
KCO1 131242Z 00001KT 02/M02 A3012 RMK A01 T00161021  RH  076%=      5-min Rain = 0
KCO1 131243Z 00001KT 02/M02 A3012 RMK A01 T00161021  RH  077%=      5-min Rain = 0
KCO1 131244Z 34001KT 02/M02 A3012 RMK A01 T00161020  RH  077%=      5-min Rain = 0
KCO1 131245Z 33001KT 02/M02 A3012 RMK A01 T00161020  RH  077%=      5-min Rain = 0
KCO1 131246Z 32001KT 02/M02 A3012 RMK A01 T00161021  RH  076%=      5-min Rain = 0
KCO1 131247Z 33000KT 02/M02 A3012 RMK A01 T00161022  RH  076%=      5-min Rain = 0
KCO1 131248Z 33000KT 02/M02 A3012 RMK A01 T00161023  RH  075%=      5-min Rain = 0
KCO1 131249Z 00000KT 02/M02 A3012 RMK A01 T00161023  RH  075%=      5-min Rain = 0
KCO1 131250Z 00000KT 02/M02 A3012 RMK A01 T00161023  RH  075%=      5-min Rain = 0
KCO1 131251Z 00000KT 02/M02 A3012 RMK A01 T00161023  RH  075%=      5-min Rain = 0
KCO1 131252Z 00000KT 02/M02 A3012 RMK A01 T00161022  RH  076%=      5-min Rain = 0
KCO1 131253Z 00000KT 02/M02 A3012 RMK A01 T00171020  RH  077%=      5-min Rain = 0
KCO1 131254Z 00000KT 02/M02 A3012 RMK A01 T00171019  RH  077%=      5-min Rain = 0
KCO1 131255Z 00000KT 02/M02 A3012 RMK A01 T00171019  RH  077%=      5-min Rain = 0
KCO1 131256Z 00000KT 02/M02 A3012 RMK A01 T00161020  RH  077%=      5-min Rain = 0
KCO1 131257Z 00000KT 02/M02 A3012 RMK A01 T00171019  RH  077%=      5-min Rain = 0
KCO1 131258Z 00000KT 02/M02 A3012 RMK A01 T00161019  RH  078%=      5-min Rain = 0
KCO1 131259Z 00000KT 02/M02 A3012 RMK A01 T00161019  RH  078%=      5-min Rain = 0
KCO1 131300Z 00000KT 02/M02 A3012 RMK A01 T00161019  RH  077%=      5-min Rain = 0
KCO1 131301Z 00000KT 02/M02 A3012 RMK A01 T00161019  RH  077%=      5-min Rain = 0
KCO1 131302Z 00000KT 02/M02 A3012 RMK A01 T00161019  RH  077%=      5-min Rain = 0
KCO1 131303Z 00001KT 02/M02 A3012 RMK A01 T00161019  RH  077%=      5-min Rain = 0
KCO1 131304Z 00001KT 02/M02 A3012 RMK A01 T00161019  RH  077%=      5-min Rain = 0
KCO1 131305Z 00000KT 02/M02 A3012 RMK A01 T00161018  RH  078%=      5-min Rain = 0
KCO1 131306Z 00000KT 02/M02 A3011 RMK A01 T00161017  RH  078%=      5-min Rain = 0
KCO1 131307Z 00000KT 02/M02 A3011 RMK A01 T00161017  RH  078%=      5-min Rain = 0
KCO1 131308Z 12001KT 02/M02 A3011 RMK A01 T00161017  RH  078%=      5-min Rain = 0
KCO1 131309Z 13001KT 02/M02 A3011 RMK A01 T00161017  RH  078%=      5-min Rain = 0
KCO1 131310Z 00000KT 02/M02 A3011 RMK A01 T00161016  RH  079%=      5-min Rain = 0
KCO1 131311Z 13000KT 02/M02 A3011 RMK A01 T00161016  RH  079%=      5-min Rain = 0
KCO1 131312Z 12001KT 02/M02 A3011 RMK A01 T00161016  RH  079%=      5-min Rain = 0
KCO1 131313Z 12001KT 02/M01 A3011 RMK A01 T00161014  RH  080%=      5-min Rain = 0
KCO1 131314Z 12001KT 02/M01 A3011 RMK A01 T00161014  RH  080%=      5-min Rain = 0
KCO1 131315Z 12001KT 02/M01 A3011 RMK A01 T00171013  RH  081%=      5-min Rain = 0
KCO1 131316Z 12001KT 02/M01 A3011 RMK A01 T00171013  RH  081%=      5-min Rain = 0
KCO1 131317Z 11001KT 02/M01 A3011 RMK A01 T00161013  RH  081%=      5-min Rain = 0
KCO1 131318Z 10002KT 02/M01 A3011 RMK A01 T00161013  RH  081%=      5-min Rain = 0
KCO1 131319Z 10002KT 02/M01 A3011 RMK A01 T00161012  RH  081%=      5-min Rain = 0
KCO1 131320Z 10003KT 02/M01 A3011 RMK A01 T00161012  RH  082%=      5-min Rain = 0
KCO1 131321Z 10002KT 02/M01 A3011 RMK A01 T00161012  RH  082%=      5-min Rain = 0
KCO1 131322Z 11001KT 02/M01 A3011 RMK A01 T00161011  RH  082%=      5-min Rain = 0
KCO1 131323Z 11001KT 02/M01 A3011 RMK A01 T00161011  RH  082%=      5-min Rain = 0
KCO1 131324Z 12001KT 02/M01 A3011 RMK A01 T00151012  RH  082%=      5-min Rain = 0
KCO1 131325Z 13001KT 02/M01 A3011 RMK A01 T00151012  RH  082%=      5-min Rain = 0
KCO1 131326Z 13001KT 02/M01 A3011 RMK A01 T00151013  RH  082%=      5-min Rain = 0
KCO1 131327Z 11001KT 02/M01 A3011 RMK A01 T00151013  RH  082%=      5-min Rain = 0
KCO1 131328Z 10002KT 02/M01 A3011 RMK A01 T00151013  RH  082%=      5-min Rain = 0
KCO1 131329Z 10002KT 02/M01 A3011 RMK A01 T00151012  RH  082%=      5-min Rain = 0
KCO1 131330Z 10003KT 02/M01 A3011 RMK A01 T00151012  RH  082%=      5-min Rain = 0
KCO1 131331Z 11003KT 02/M01 A301 RMK A01 T00151012  RH  082%=      5-min Rain = 0
KCO1 131332Z 11003KT 02/M01 A301 RMK A01 T00151012  RH  083%=      5-min Rain = 0
KCO1 131333Z 11004KT 02/M01 A301 RMK A01 T00151011  RH  083%=      5-min Rain = 0
KCO1 131334Z 11004KT 02/M01 A301 RMK A01 T00151011  RH  083%=      5-min Rain = 0
KCO1 131335Z 11003KT 02/M01 A301 RMK A01 T00151011  RH  083%=      5-min Rain = 0
KCO1 131336Z 11002KT 02/M01 A301 RMK A01 T00151011  RH  083%=      5-min Rain = 0
KCO1 131337Z 12001KT 02/M01 A3011 RMK A01 T00151011  RH  083%=      5-min Rain = 0
KCO1 131338Z 12001KT 02/M01 A3011 RMK A01 T00151010  RH  083%=      5-min Rain = 0
KCO1 131339Z 13001KT 02/M01 A301 RMK A01 T00151011  RH  083%=      5-min Rain = 0
KCO1 131340Z 13002KT 02/M01 A301 RMK A01 T00151011  RH  083%=      5-min Rain = 0
KCO1 131341Z 12002KT 02/M01 A301 RMK A01 T00151011  RH  083%=      5-min Rain = 0
KCO1 131342Z 12002KT 02/M01 A301 RMK A01 T00151010  RH  083%=      5-min Rain = 0
KCO1 131343Z 11001KT 02/M01 A301 RMK A01 T00161010  RH  083%=      5-min Rain = 0
KCO1 131344Z 13000KT 02/M01 A301 RMK A01 T00151010  RH  083%=      5-min Rain = 0
KCO1 131345Z 00000KT 02/M01 A301 RMK A01 T00161010  RH  083%=      5-min Rain = 0
KCO1 131346Z 13000KT 02/M01 A301 RMK A01 T00161010  RH  083%=      5-min Rain = 0
KCO1 131347Z 00000KT 02/M01 A301 RMK A01 T00161010  RH  082%=      5-min Rain = 0
KCO1 131348Z 00000KT 02/M01 A301 RMK A01 T00161011  RH  082%=      5-min Rain = 0
KCO1 131349Z 13000KT 02/M01 A301 RMK A01 T00161012  RH  081%=      5-min Rain = 0
KCO1 131350Z 14001KT 02/M01 A301 RMK A01 T00171013  RH  080%=      5-min Rain = 0
KCO1 131351Z 14001KT 02/M01 A301 RMK A01 T00171014  RH  080%=      5-min Rain = 0
KCO1 131352Z 13002KT 02/M01 A301 RMK A01 T00171013  RH  080%=      5-min Rain = 0
KCO1 131353Z 14002KT 02/M01 A301 RMK A01 T00181013  RH  080%=      5-min Rain = 0
KCO1 131354Z 15002KT 02/M01 A301 RMK A01 T00181013  RH  080%=      5-min Rain = 0
KCO1 131355Z 17002KT 02/M01 A301 RMK A01 T00191012  RH  080%=      5-min Rain = 0
KCO1 131356Z 18002KT 02/M01 A301 RMK A01 T00191013  RH  080%=      5-min Rain = 0
KCO1 131357Z 19002KT 02/M01 A301 RMK A01 T00191013  RH  079%=      5-min Rain = 0
KCO1 131358Z 16002KT 02/M01 A301 RMK A01 T00191014  RH  079%=      5-min Rain = 0
KCO1 131359Z 13002KT 02/M02 A3009 RMK A01 T00201015  RH  078%=      5-min Rain = 0
KCO1 131400Z 11002KT 02/M01 A3009 RMK A01 T00211013  RH  078%=      5-min Rain = 0
KCO1 131401Z 11002KT 02/M01 A3009 RMK A01 T00211013  RH  078%=      5-min Rain = 0
KCO1 131402Z 11001KT 02/M01 A3009 RMK A01 T00221012  RH  078%=      5-min Rain = 0
KCO1 131403Z 14001KT 02/M01 A3009 RMK A01 T00221011  RH  078%=      5-min Rain = 0
KCO1 131404Z 16002KT 02/M01 A3009 RMK A01 T00221013  RH  078%=      5-min Rain = 0
KCO1 131405Z 17002KT 02/M01 A301 RMK A01 T00221013  RH  077%=      5-min Rain = 0
KCO1 131406Z 16002KT 02/M01 A3009 RMK A01 T00231013  RH  077%=      5-min Rain = 0
KCO1 131407Z 16002KT 02/M01 A3009 RMK A01 T00231012  RH  078%=      5-min Rain = 0
KCO1 131408Z 15001KT 02/M01 A3009 RMK A01 T00231011  RH  078%=      5-min Rain = 0
KCO1 131409Z 14001KT 02/M01 A3009 RMK A01 T00231013  RH  077%=      5-min Rain = 0
KCO1 131410Z 14000KT 02/M01 A3009 RMK A01 T00241012  RH  077%=      5-min Rain = 0
KCO1 131411Z 00000KT 02/M01 A3009 RMK A01 T00241013  RH  077%=      5-min Rain = 0
KCO1 131412Z 00000KT 02/M01 A3009 RMK A01 T00241013  RH  076%=      5-min Rain = 0
KCO1 131413Z 00000KT 03/M01 A3009 RMK A01 T00251013  RH  076%=      5-min Rain = 0
KCO1 131414Z 14001KT 03/M01 A3009 RMK A01 T00251012  RH  076%=      5-min Rain = 0
KCO1 131415Z 14001KT 03/M01 A3009 RMK A01 T00261012  RH  076%=      5-min Rain = 0
KCO1 131416Z 13001KT 03/M01 A3009 RMK A01 T00271012  RH  076%=      5-min Rain = 0
KCO1 131417Z 15001KT 03/M01 A3009 RMK A01 T00271012  RH  075%=      5-min Rain = 0
KCO1 131418Z 18001KT 03/M01 A3009 RMK A01 T00281012  RH  075%=      5-min Rain = 0
KCO1 131419Z 18001KT 03/M01 A3009 RMK A01 T00291011  RH  075%=      5-min Rain = 0
KCO1 131420Z 20001KT 03/M01 A3009 RMK A01 T00301010  RH  075%=      5-min Rain = 0
KCO1 131421Z 23002KT 03/M01 A3009 RMK A01 T00311010  RH  075%=      5-min Rain = 0
KCO1 131422Z 24001KT 03/M01 A301 RMK A01 T00311012  RH  074%=      5-min Rain = 0
KCO1 131423Z 24002KT 03/M01 A301 RMK A01 T00311012  RH  073%=      5-min Rain = 0
KCO1 131424Z 23002KT 03/M01 A301 RMK A01 T00311012  RH  073%=      5-min Rain = 0
KCO1 131425Z 21001KT 03/M01 A301 RMK A01 T00311012  RH  074%=      5-min Rain = 0
KCO1 131426Z 20001KT 03/M01 A301 RMK A01 T00301012  RH  074%=      5-min Rain = 0
KCO1 131427Z 21001KT 03/M01 A3009 RMK A01 T00301012  RH  074%=      5-min Rain = 0
KCO1 131428Z 24002KT 03/M01 A3009 RMK A01 T00311012  RH  074%=      5-min Rain = 0
KCO1 131429Z 25002KT 03/M01 A3009 RMK A01 T00311011  RH  074%=      5-min Rain = 0
KCO1 131430Z 24002KT 03/M01 A3009 RMK A01 T00311010  RH  074%=      5-min Rain = 0
KCO1 131431Z 22002KT 03/M01 A3009 RMK A01 T00311010  RH  075%=      5-min Rain = 0
KCO1 131432Z 20002KT 03/M01 A3009 RMK A01 T00311010  RH  075%=      5-min Rain = 0
KCO1 131433Z 19003KT 03/M01 A3009 RMK A01 T00311009  RH  075%=      5-min Rain = 0
KCO1 131434Z 19002KT 03/M01 A3009 RMK A01 T00301009  RH  075%=      5-min Rain = 0
KCO1 131435Z 19003KT 03/M01 A3009 RMK A01 T00311009  RH  075%=      5-min Rain = 0
KCO1 131436Z 18002KT 03/M01 A3009 RMK A01 T00311009  RH  075%=      5-min Rain = 0
KCO1 131437Z 20002KT 03/M01 A301 RMK A01 T00321009  RH  075%=      5-min Rain = 0
KCO1 131438Z 22002KT 03/M01 A301 RMK A01 T00321008  RH  075%=      5-min Rain = 0
KCO1 131439Z 22003KT 03/M01 A301 RMK A01 T00331007  RH  075%=      5-min Rain = 0
KCO1 131440Z 21003KT 03/M01 A301 RMK A01 T00331008  RH  075%=      5-min Rain = 0
KCO1 131441Z 20003KT 03/M01 A301 RMK A01 T00331007  RH  075%=      5-min Rain = 0
KCO1 131442Z 20002KT 03/M01 A301 RMK A01 T00331007  RH  075%=      5-min Rain = 0
KCO1 131443Z 21002KT 03/M01 A301 RMK A01 T00331007  RH  075%=      5-min Rain = 0
KCO1 131444Z 17002KT 03/M01 A301 RMK A01 T00331007  RH  075%=      5-min Rain = 0
KCO1 131445Z 18002KT 03/M01 A301 RMK A01 T00331007  RH  075%=      5-min Rain = 0
KCO1 131446Z 17002KT 03/M01 A301 RMK A01 T00341006  RH  075%=      5-min Rain = 0
KCO1 131447Z 19002KT 03/M01 A3009 RMK A01 T00341006  RH  075%=      5-min Rain = 0
KCO1 131448Z 15002KT 03/M01 A3009 RMK A01 T00341006  RH  075%=      5-min Rain = 0
KCO1 131449Z 16003KT 03/M01 A3009 RMK A01 T00341006  RH  075%=      5-min Rain = 0
KCO1 131450Z 16002KT 03/M01 A3009 RMK A01 T00341007  RH  075%=      5-min Rain = 0
KCO1 131451Z 16002KT 03/M01 A3009 RMK A01 T00331008  RH  074%=      5-min Rain = 0
KCO1 131452Z 18002KT 03/M01 A3009 RMK A01 T00331008  RH  075%=      5-min Rain = 0
KCO1 131453Z 19002KT 03/M01 A3009 RMK A01 T00321008  RH  075%=      5-min Rain = 0
KCO1 131454Z 20002KT 03/M01 A3009 RMK A01 T00321008  RH  075%=      5-min Rain = 0
KCO1 131455Z 21002KT 03/M01 A3009 RMK A01 T00321007  RH  075%=      5-min Rain = 0
KCO1 131456Z 20002KT 03/M01 A3009 RMK A01 T00321007  RH  075%=      5-min Rain = 0
KCO1 131457Z 21002KT 03/M01 A3009 RMK A01 T00321008  RH  075%=      5-min Rain = 0
KCO1 131458Z 21001KT 03/M01 A3009 RMK A01 T00321008  RH  075%=      5-min Rain = 0
KCO1 131459Z 18001KT 03/M01 A3009 RMK A01 T00321008  RH  075%=      5-min Rain = 0
KCO1 131500Z 17002KT 03/M01 A3009 RMK A01 T00331007  RH  075%=      5-min Rain = 0
KCO1 131501Z 16002KT 03/M01 A3009 RMK A01 T00331007  RH  075%=      5-min Rain = 0
KCO1 131502Z 17003KT 03/M01 A3009 RMK A01 T00331007  RH  075%=      5-min Rain = 0
KCO1 131503Z 17003KT 03/M01 A3009 RMK A01 T00331005  RH  076%=      5-min Rain = 0
KCO1 131504Z 17003KT 03/M01 A3009 RMK A01 T00341005  RH  076%=      5-min Rain = 0
KCO1 131505Z 18002KT 03/M01 A3009 RMK A01 T00341005  RH  075%=      5-min Rain = 0
KCO1 131506Z 18002KT 03/M01 A301 RMK A01 T00341005  RH  075%=      5-min Rain = 0
KCO1 131507Z 18002KT 03/M01 A301 RMK A01 T00341006  RH  075%=      5-min Rain = 0
KCO1 131508Z 19002KT 03/M01 A301 RMK A01 T00341006  RH  075%=      5-min Rain = 0
KCO1 131509Z 19002KT 03/M01 A301 RMK A01 T00341006  RH  075%=      5-min Rain = 0
KCO1 131510Z 19001KT 03/M01 A3009 RMK A01 T00341006  RH  075%=      5-min Rain = 0
KCO1 131511Z 18001KT 03/M01 A3009 RMK A01 T00341007  RH  075%=      5-min Rain = 0
KCO1 131512Z 17002KT 03/M01 A3009 RMK A01 T00341006  RH  075%=      5-min Rain = 0
KCO1 131513Z 16002KT 03/M01 A3009 RMK A01 T00341005  RH  075%=      5-min Rain = 0
KCO1 131514Z 17002KT 04/M01 A3009 RMK A01 T00351005  RH  075%=      5-min Rain = 0
KCO1 131515Z 18002KT 04/M01 A301 RMK A01 T00351005  RH  075%=      5-min Rain = 0
KCO1 131516Z 17002KT 04/M01 A3009 RMK A01 T00351005  RH  075%=      5-min Rain = 0
KCO1 131517Z 18002KT 04/M00 A3009 RMK A01 T00361004  RH  076%=      5-min Rain = 0
KCO1 131518Z 20002KT 04/M00 A3009 RMK A01 T00361004  RH  075%=      5-min Rain = 0
KCO1 131519Z 20002KT 04/M00 A3009 RMK A01 T00361004  RH  075%=      5-min Rain = 0
KCO1 131520Z 18002KT 04/M01 A3009 RMK A01 T00361005  RH  075%=      5-min Rain = 0
KCO1 131521Z 17002KT 04/M01 A3009 RMK A01 T00361005  RH  075%=      5-min Rain = 0
KCO1 131522Z 17001KT 04/M00 A3009 RMK A01 T00361004  RH  075%=      5-min Rain = 0
KCO1 131523Z 16000KT 04/M00 A3009 RMK A01 T00371004  RH  075%=      5-min Rain = 0
KCO1 131524Z 00000KT 04/M00 A3009 RMK A01 T00371004  RH  074%=      5-min Rain = 0
KCO1 131525Z 00000KT 04/M00 A3009 RMK A01 T00381004  RH  074%=      5-min Rain = 0
KCO1 131526Z 24000KT 04/M00 A3009 RMK A01 T00381003  RH  074%=      5-min Rain = 0
KCO1 131527Z 24001KT 04/M00 A3009 RMK A01 T00381003  RH  074%=      5-min Rain = 0
KCO1 131528Z 19001KT 04/M00 A3009 RMK A01 T00391003  RH  074%=      5-min Rain = 0
KCO1 131529Z 13002KT 04/M00 A3009 RMK A01 T00391002  RH  074%=      5-min Rain = 0
KCO1 131530Z 11002KT 04/M00 A3009 RMK A01 T00401001  RH  074%=      5-min Rain = 0
KCO1 131531Z 08001KT 04/M00 A3009 RMK A01 T00401002  RH  074%=      5-min Rain = 0
KCO1 131532Z 04001KT 04/M00 A3009 RMK A01 T00411002  RH  074%=      5-min Rain = 0
KCO1 131533Z 06002KT 04/00 A3009 RMK A01 T004100-0  RH  074%=      5-min Rain = 0
KCO1 131534Z 06002KT 04/00 A3009 RMK A01 T004100-0  RH  074%=      5-min Rain = 0
KCO1 131535Z 07001KT 04/M00 A3009 RMK A01 T00411001  RH  074%=      5-min Rain = 0
KCO1 131536Z 06000KT 04/M00 A3009 RMK A01 T00411002  RH  074%=      5-min Rain = 0
KCO1 131537Z 06002KT 04/M00 A3009 RMK A01 T00421001  RH  074%=      5-min Rain = 0
KCO1 131538Z 06001KT 04/M00 A3009 RMK A01 T00421001  RH  074%=      5-min Rain = 0
KCO1 131539Z 08001KT 04/M00 A3009 RMK A01 T00421001  RH  074%=      5-min Rain = 0
KCO1 131540Z 05001KT 04/M00 A3009 RMK A01 T00421001  RH  074%=      5-min Rain = 0
KCO1 131541Z 05001KT 04/00 A3009 RMK A01 T00430000  RH  074%=      5-min Rain = 0
KCO1 131542Z 07002KT 04/00 A3009 RMK A01 T00430000  RH  073%=      5-min Rain = 0
KCO1 131543Z 08001KT 04/00 A3009 RMK A01 T00440001  RH  073%=      5-min Rain = 0
KCO1 131544Z 01000KT 05/00 A3009 RMK A01 T00450000  RH  073%=      5-min Rain = 0
KCO1 131545Z 01001KT 05/00 A3009 RMK A01 T00450000  RH  073%=      5-min Rain = 0
KCO1 131546Z 00001KT 05/M00 A3009 RMK A01 T00451001  RH  072%=      5-min Rain = 0
KCO1 131547Z 00001KT 05/M00 A3009 RMK A01 T00451001  RH  072%=      5-min Rain = 0
KCO1 131548Z 01001KT 05/M00 A3009 RMK A01 T00451001  RH  072%=      5-min Rain = 0
KCO1 131549Z 05001KT 05/00 A3009 RMK A01 T004500-0  RH  072%=      5-min Rain = 0
KCO1 131550Z 04001KT 05/00 A3009 RMK A01 T00460000  RH  072%=      5-min Rain = 0
KCO1 131551Z 03000KT 05/00 A3009 RMK A01 T00460000  RH  072%=      5-min Rain = 0
KCO1 131552Z 07000KT 05/00 A3009 RMK A01 T00470002  RH  072%=      5-min Rain = 0
KCO1 131553Z 06001KT 05/00 A3009 RMK A01 T00480003  RH  072%=      5-min Rain = 0
KCO1 131554Z 09001KT 05/00 A3009 RMK A01 T00490003  RH  072%=      5-min Rain = 0
KCO1 131555Z 19000KT 05/00 A3009 RMK A01 T00490002  RH  071%=      5-min Rain = 0
KCO1 131556Z 09002KT 05/00 A3009 RMK A01 T00500002  RH  071%=      5-min Rain = 0
KCO1 131557Z 07001KT 05/00 A3009 RMK A01 T00500002  RH  071%=      5-min Rain = 0
KCO1 131558Z 04002KT 05/00 A3009 RMK A01 T00500003  RH  071%=      5-min Rain = 0
KCO1 131559Z 05002KT 05/00 A3008 RMK A01 T00500003  RH  071%=      5-min Rain = 0
KCO1 131600Z 05002KT 05/00 A3008 RMK A01 T00510003  RH  071%=      5-min Rain = 0
KCO1 131601Z 06002KT 05/00 A3008 RMK A01 T00510002  RH  070%=      5-min Rain = 0
KCO1 131602Z 07002KT 05/00 A3008 RMK A01 T00510003  RH  071%=      5-min Rain = 0
KCO1 131603Z 06003KT 05/00 A3008 RMK A01 T00520004  RH  071%=      5-min Rain = 0
KCO1 131604Z 06002KT 05/00 A3009 RMK A01 T00530004  RH  071%=      5-min Rain = 0
KCO1 131605Z 02002KT 05/00 A3009 RMK A01 T00530004  RH  071%=      5-min Rain = 0
KCO1 131606Z 02002KT 05/00 A3009 RMK A01 T00530002  RH  070%=      5-min Rain = 0
KCO1 131607Z 01002KT 05/00 A3009 RMK A01 T005200-0  RH  069%=      5-min Rain = 0
KCO1 131608Z 05002KT 05/00 A3009 RMK A01 T00510001  RH  070%=      5-min Rain = 0
KCO1 131609Z 05003KT 05/00 A3009 RMK A01 T00520004  RH  071%=      5-min Rain = 0
KCO1 131610Z 06003KT 05/00 A3009 RMK A01 T00520003  RH  071%=      5-min Rain = 0
KCO1 131611Z 06003KT 05/00 A3009 RMK A01 T00520003  RH  071%=      5-min Rain = 0
KCO1 131612Z 04004KT 05/01 A3009 RMK A01 T00530005  RH  071%=      5-min Rain = 0
KCO1 131613Z 04003KT 05/01 A3009 RMK A01 T00530005  RH  071%=      5-min Rain = 0
KCO1 131614Z 09003KT 05/01 A3009 RMK A01 T00530005  RH  071%=      5-min Rain = 0
KCO1 131615Z 09004KT 05/01 A3009 RMK A01 T00540006  RH  071%=      5-min Rain = 0
KCO1 131616Z 08004KT 05/01 A3009 RMK A01 T00540006  RH  071%=      5-min Rain = 0
KCO1 131617Z 07003KT 06/01 A3009 RMK A01 T00550006  RH  071%=      5-min Rain = 0
KCO1 131618Z 09004KT 06/01 A3009 RMK A01 T00550007  RH  071%=      5-min Rain = 0
KCO1 131619Z 10004KT 06/01 A3009 RMK A01 T00560008  RH  071%=      5-min Rain = 0
KCO1 131620Z 09004KT 06/01 A3009 RMK A01 T00560006  RH  070%=      5-min Rain = 0
KCO1 131621Z 07004KT 06/01 A3009 RMK A01 T00560006  RH  070%=      5-min Rain = 0
KCO1 131622Z 07003KT 06/01 A3009 RMK A01 T00550006  RH  070%=      5-min Rain = 0
KCO1 131623Z 08004KT 06/01 A3009 RMK A01 T00550007  RH  071%=      5-min Rain = 0
KCO1 131624Z 08004KT 06/01 A3009 RMK A01 T00550007  RH  071%=      5-min Rain = 0
KCO1 131625Z 08004KT 06/01 A3009 RMK A01 T00550007  RH  071%=      5-min Rain = 0
KCO1 131626Z 09004KT 06/01 A3009 RMK A01 T00550006  RH  071%=      5-min Rain = 0
KCO1 131627Z 08004KT 06/01 A3009 RMK A01 T00560008  RH  071%=      5-min Rain = 0
KCO1 131628Z 08004KT 06/01 A3009 RMK A01 T00570009  RH  071%=      5-min Rain = 0
KCO1 131629Z 08003KT 06/01 A3009 RMK A01 T00580010  RH  071%=      5-min Rain = 0
KCO1 131630Z 10003KT 06/01 A3009 RMK A01 T00580009  RH  071%=      5-min Rain = 0
KCO1 131631Z 10002KT 06/01 A3009 RMK A01 T00580007  RH  070%=      5-min Rain = 0
KCO1 131632Z 06003KT 06/01 A3009 RMK A01 T00580006  RH  069%=      5-min Rain = 0
KCO1 131633Z 06003KT 06/01 A3008 RMK A01 T00570005  RH  069%=      5-min Rain = 0
KCO1 131634Z 05002KT 06/01 A3009 RMK A01 T00570006  RH  069%=      5-min Rain = 0
KCO1 131635Z 06001KT 06/01 A3009 RMK A01 T00570006  RH  070%=      5-min Rain = 0
KCO1 131636Z 07001KT 06/01 A3009 RMK A01 T00570008  RH  070%=      5-min Rain = 0
KCO1 131637Z 07001KT 06/01 A3009 RMK A01 T00580009  RH  070%=      5-min Rain = 0
KCO1 131638Z 05002KT 06/01 A3009 RMK A01 T00590008  RH  070%=      5-min Rain = 0
KCO1 131639Z 05002KT 06/01 A3009 RMK A01 T00590006  RH  069%=      5-min Rain = 0
KCO1 131640Z 06002KT 06/01 A3009 RMK A01 T00590007  RH  069%=      5-min Rain = 0
KCO1 131641Z 06002KT 06/01 A3009 RMK A01 T00600008  RH  069%=      5-min Rain = 0
KCO1 131642Z 05002KT 06/01 A3009 RMK A01 T00600006  RH  068%=      5-min Rain = 0
KCO1 131643Z 03002KT 06/01 A3009 RMK A01 T00600006  RH  068%=      5-min Rain = 0
KCO1 131644Z 02002KT 06/01 A3009 RMK A01 T00600005  RH  068%=      5-min Rain = 0
KCO1 131645Z 01002KT 06/00 A3009 RMK A01 T00590004  RH  068%=      5-min Rain = 0
KCO1 131646Z 02001KT 06/01 A3009 RMK A01 T00590005  RH  068%=      5-min Rain = 0
KCO1 131647Z 03001KT 06/01 A3009 RMK A01 T00590005  RH  068%=      5-min Rain = 0
KCO1 131648Z 02001KT 06/01 A3009 RMK A01 T00590006  RH  068%=      5-min Rain = 0
KCO1 131649Z 35003KT 06/01 A3009 RMK A01 T00600007  RH  069%=      5-min Rain = 0
KCO1 131650Z 35002KT 06/01 A3009 RMK A01 T00600006  RH  068%=      5-min Rain = 0
KCO1 131651Z 00002KT 06/01 A3009 RMK A01 T00600007  RH  069%=      5-min Rain = 0
KCO1 131652Z 36003KT 06/01 A3009 RMK A01 T00610007  RH  069%=      5-min Rain = 0
KCO1 131653Z 36002KT 06/01 A3009 RMK A01 T00610007  RH  068%=      5-min Rain = 0
KCO1 131654Z 35002KT 06/01 A3009 RMK A01 T00620007  RH  068%=      5-min Rain = 0
KCO1 131655Z 34001KT 06/01 A3009 RMK A01 T00630008  RH  068%=      5-min Rain = 0
KCO1 131656Z 07000KT 06/01 A3009 RMK A01 T00640008  RH  068%=      5-min Rain = 0
KCO1 131657Z 11001KT 07/01 A3009 RMK A01 T00650010  RH  068%=      5-min Rain = 0
KCO1 131658Z 03002KT 07/01 A3009 RMK A01 T00670011  RH  068%=      5-min Rain = 0
KCO1 131659Z 08002KT 07/01 A3009 RMK A01 T00670010  RH  067%=      5-min Rain = 0
KCO1 131700Z 09003KT 07/01 A3009 RMK A01 T00690009  RH  066%=      5-min Rain = 0
KCO1 131701Z 08002KT 07/01 A3009 RMK A01 T00690008  RH  065%=      5-min Rain = 0
KCO1 131702Z 04002KT 07/01 A3009 RMK A01 T00690007  RH  065%=      5-min Rain = 0
KCO1 131703Z 01002KT 07/01 A3009 RMK A01 T00690007  RH  065%=      5-min Rain = 0
KCO1 131704Z 02001KT 07/01 A3009 RMK A01 T00680007  RH  065%=      5-min Rain = 0
KCO1 131705Z 01000KT 07/01 A3009 RMK A01 T00670005  RH  065%=      5-min Rain = 0
KCO1 131706Z 34001KT 07/01 A3009 RMK A01 T00670005  RH  065%=      5-min Rain = 0
KCO1 131707Z 34002KT 07/01 A3009 RMK A01 T00670008  RH  066%=      5-min Rain = 0
KCO1 131708Z 01002KT 07/01 A3009 RMK A01 T00680008  RH  066%=      5-min Rain = 0
KCO1 131709Z 34001KT 07/01 A3008 RMK A01 T00670007  RH  065%=      5-min Rain = 0
KCO1 131710Z 33002KT 07/01 A3008 RMK A01 T00670007  RH  065%=      5-min Rain = 0
KCO1 131711Z 34002KT 07/01 A3008 RMK A01 T00670008  RH  066%=      5-min Rain = 0
KCO1 131712Z 00001KT 07/01 A3008 RMK A01 T00680008  RH  065%=      5-min Rain = 0
KCO1 131713Z 00000KT 07/01 A3008 RMK A01 T00690008  RH  065%=      5-min Rain = 0
KCO1 131714Z 00000KT 07/01 A3008 RMK A01 T00700007  RH  064%=      5-min Rain = 0
KCO1 131715Z 09001KT 07/01 A3008 RMK A01 T00710007  RH  064%=      5-min Rain = 0
KCO1 131716Z 09004KT 07/01 A3008 RMK A01 T00730009  RH  064%=      5-min Rain = 0
KCO1 131717Z 09003KT 08/01 A3008 RMK A01 T00750010  RH  063%=      5-min Rain = 0
KCO1 131718Z 10002KT 08/01 A3008 RMK A01 T00760009  RH  062%=      5-min Rain = 0
KCO1 131719Z 09003KT 08/01 A3008 RMK A01 T00760007  RH  062%=      5-min Rain = 0
KCO1 131720Z 06002KT 08/01 A3008 RMK A01 T00760007  RH  061%=      5-min Rain = 0
KCO1 131721Z 04002KT 08/01 A3008 RMK A01 T00760007  RH  062%=      5-min Rain = 0
KCO1 131722Z 04002KT 08/01 A3008 RMK A01 T00760009  RH  063%=      5-min Rain = 0
KCO1 131723Z 03002KT 08/01 A3008 RMK A01 T00750008  RH  062%=      5-min Rain = 0
KCO1 131724Z 03002KT 08/01 A3008 RMK A01 T00750007  RH  062%=      5-min Rain = 0
KCO1 131725Z 08003KT 07/01 A3008 RMK A01 T00740007  RH  062%=      5-min Rain = 0
KCO1 131726Z 08003KT 07/01 A3008 RMK A01 T00740007  RH  062%=      5-min Rain = 0
KCO1 131727Z 10002KT 07/01 A3008 RMK A01 T00740007  RH  062%=      5-min Rain = 0
KCO1 131728Z 09001KT 07/01 A3007 RMK A01 T00740008  RH  063%=      5-min Rain = 0
KCO1 131729Z 05001KT 08/01 A3007 RMK A01 T00750008  RH  063%=      5-min Rain = 0
KCO1 131730Z 06000KT 08/01 A3007 RMK A01 T00750007  RH  062%=      5-min Rain = 0
KCO1 131731Z 06000KT 08/01 A3007 RMK A01 T00760006  RH  061%=      5-min Rain = 0
KCO1 131732Z 07003KT 08/01 A3007 RMK A01 T00760008  RH  062%=      5-min Rain = 0
KCO1 131733Z 07002KT 08/01 A3007 RMK A01 T00760009  RH  062%=      5-min Rain = 0
KCO1 131734Z 08002KT 08/01 A3007 RMK A01 T00770009  RH  062%=      5-min Rain = 0
KCO1 131735Z 07002KT 08/01 A3007 RMK A01 T00750006  RH  061%=      5-min Rain = 0
KCO1 131736Z 07002KT 08/01 A3007 RMK A01 T00750008  RH  062%=      5-min Rain = 0
KCO1 131737Z 06002KT 08/01 A3007 RMK A01 T00760010  RH  063%=      5-min Rain = 0
KCO1 131738Z 06002KT 08/01 A3007 RMK A01 T00760009  RH  062%=      5-min Rain = 0
KCO1 131739Z 08002KT 08/01 A3007 RMK A01 T00760009  RH  062%=      5-min Rain = 0
KCO1 131740Z 10002KT 08/01 A3007 RMK A01 T00770010  RH  063%=      5-min Rain = 0
KCO1 131741Z 06002KT 08/01 A3007 RMK A01 T00770009  RH  062%=      5-min Rain = 0
KCO1 131742Z 09003KT 08/01 A3007 RMK A01 T00780012  RH  063%=      5-min Rain = 0
KCO1 131743Z 08003KT 08/01 A3007 RMK A01 T00780010  RH  062%=      5-min Rain = 0
KCO1 131744Z 08003KT 08/01 A3007 RMK A01 T00780011  RH  063%=      5-min Rain = 0
KCO1 131745Z 10003KT 08/01 A3007 RMK A01 T00780010  RH  062%=      5-min Rain = 0
KCO1 131746Z 07003KT 08/01 A3007 RMK A01 T00790010  RH  062%=      5-min Rain = 0
KCO1 131747Z 04002KT 08/01 A3007 RMK A01 T00790011  RH  062%=      5-min Rain = 0
KCO1 131748Z 03002KT 08/01 A3007 RMK A01 T00790009  RH  061%=      5-min Rain = 0
KCO1 131749Z 06002KT 08/01 A3007 RMK A01 T00790009  RH  062%=      5-min Rain = 0
KCO1 131750Z 08003KT 08/01 A3007 RMK A01 T00790011  RH  062%=      5-min Rain = 0
KCO1 131751Z 09003KT 08/01 A3007 RMK A01 T00790009  RH  061%=      5-min Rain = 0
KCO1 131752Z 09003KT 08/01 A3007 RMK A01 T00790010  RH  061%=      5-min Rain = 0
KCO1 131753Z 10003KT 08/01 A3007 RMK A01 T00790009  RH  061%=      5-min Rain = 0
KCO1 131754Z 11002KT 08/01 A3007 RMK A01 T00800010  RH  061%=      5-min Rain = 0
KCO1 131755Z 11002KT 08/01 A3007 RMK A01 T00810009  RH  061%=      5-min Rain = 0
KCO1 131756Z 10002KT 08/01 A3007 RMK A01 T00810009  RH  061%=      5-min Rain = 0
KCO1 131757Z 11003KT 08/01 A3006 RMK A01 T00810009  RH  061%=      5-min Rain = 0
KCO1 131758Z 09004KT 08/01 A3006 RMK A01 T00810011  RH  061%=      5-min Rain = 0
KCO1 131759Z 10004KT 08/01 A3006 RMK A01 T00820012  RH  061%=      5-min Rain = 0
KCO1 131800Z 10004KT 08/01 A3006 RMK A01 T00820012  RH  061%=      5-min Rain = 0
KCO1 131801Z 11003KT 08/01 A3006 RMK A01 T00830013  RH  061%=      5-min Rain = 0
KCO1 131802Z 09003KT 08/01 A3006 RMK A01 T00820013  RH  061%=      5-min Rain = 0
KCO1 131803Z 09003KT 08/02 A3006 RMK A01 T00830015  RH  062%=      5-min Rain = 0
KCO1 131804Z 11003KT 08/02 A3006 RMK A01 T00840015  RH  062%=      5-min Rain = 0
KCO1 131805Z 12003KT 09/02 A3006 RMK A01 T00850016  RH  062%=      5-min Rain = 0
KCO1 131806Z 12003KT 09/02 A3006 RMK A01 T00860015  RH  061%=      5-min Rain = 0
KCO1 131807Z 11003KT 09/01 A3006 RMK A01 T00860014  RH  060%=      5-min Rain = 0
KCO1 131808Z 08004KT 09/01 A3005 RMK A01 T00850014  RH  061%=      5-min Rain = 0
KCO1 131809Z 08004KT 09/02 A3005 RMK A01 T00860015  RH  061%=      5-min Rain = 0
KCO1 131810Z 10004KT 09/02 A3005 RMK A01 T00860015  RH  061%=      5-min Rain = 0
KCO1 131811Z 10004KT 09/02 A3005 RMK A01 T00870016  RH  061%=      5-min Rain = 0
KCO1 131812Z 10003KT 09/02 A3005 RMK A01 T00870015  RH  060%=      5-min Rain = 0
KCO1 131813Z 10003KT 09/02 A3005 RMK A01 T00880015  RH  061%=      5-min Rain = 0
KCO1 131814Z 07004KT 09/02 A3005 RMK A01 T00880016  RH  061%=      5-min Rain = 0
KCO1 131815Z 08004KT 09/02 A3005 RMK A01 T00890016  RH  060%=      5-min Rain = 0
KCO1 131816Z 08004KT 09/02 A3005 RMK A01 T00890016  RH  060%=      5-min Rain = 0
KCO1 131817Z 10004KT 09/02 A3005 RMK A01 T00890016  RH  060%=      5-min Rain = 0
KCO1 131818Z 11003KT 09/02 A3005 RMK A01 T00900019  RH  061%=      5-min Rain = 0
KCO1 131819Z 10003KT 09/02 A3005 RMK A01 T00910020  RH  061%=      5-min Rain = 0
KCO1 131820Z 12003KT 09/02 A3005 RMK A01 T00920018  RH  060%=      5-min Rain = 0
KCO1 131821Z 13005KT 09/02 A3005 RMK A01 T00930019  RH  060%=      5-min Rain = 0
KCO1 131822Z 12005KT 09/02 A3004 RMK A01 T00920017  RH  059%=      5-min Rain = 0
KCO1 131823Z 13004KT 09/02 A3004 RMK A01 T00920016  RH  059%=      5-min Rain = 0
KCO1 131824Z 14004KT 09/02 A3004 RMK A01 T00920017  RH  059%=      5-min Rain = 0
KCO1 131825Z 13004KT 09/02 A3004 RMK A01 T00910015  RH  059%=      5-min Rain = 0
KCO1 131826Z 12003KT 09/02 A3004 RMK A01 T00900015  RH  059%=      5-min Rain = 0
KCO1 131827Z 11004KT 09/02 A3004 RMK A01 T00900016  RH  060%=      5-min Rain = 0
KCO1 131828Z 11004KT 09/02 A3004 RMK A01 T00900019  RH  061%=      5-min Rain = 0
KCO1 131829Z 11004KT 09/02 A3004 RMK A01 T00920018  RH  060%=      5-min Rain = 0
KCO1 131830Z 13003KT 09/02 A3004 RMK A01 T00910018  RH  060%=      5-min Rain = 0
KCO1 131831Z 12003KT 09/02 A3004 RMK A01 T00920017  RH  060%=      5-min Rain = 0
KCO1 131832Z 10002KT 09/02 A3004 RMK A01 T00910018  RH  060%=      5-min Rain = 0
KCO1 131833Z 12001KT 09/02 A3004 RMK A01 T00920018  RH  060%=      5-min Rain = 0
KCO1 131834Z 11003KT 09/02 A3004 RMK A01 T00930019  RH  060%=      5-min Rain = 0
KCO1 131835Z 11003KT 09/02 A3004 RMK A01 T00930018  RH  060%=      5-min Rain = 0
KCO1 131836Z 09002KT 09/02 A3004 RMK A01 T00930019  RH  060%=      5-min Rain = 0
KCO1 131837Z 10001KT 09/02 A3004 RMK A01 T00920018  RH  060%=      5-min Rain = 0
KCO1 131838Z 13003KT 09/02 A3003 RMK A01 T00930020  RH  060%=      5-min Rain = 0
KCO1 131839Z 14003KT 09/02 A3003 RMK A01 T00930018  RH  059%=      5-min Rain = 0
KCO1 131840Z 14004KT 09/02 A3003 RMK A01 T00940019  RH  059%=      5-min Rain = 0
KCO1 131841Z 14003KT 09/02 A3003 RMK A01 T00940018  RH  059%=      5-min Rain = 0
KCO1 131842Z 15003KT 09/02 A3003 RMK A01 T00940018  RH  059%=      5-min Rain = 0
KCO1 131843Z 16002KT 09/02 A3003 RMK A01 T00940019  RH  060%=      5-min Rain = 0
KCO1 131844Z 16002KT 09/02 A3003 RMK A01 T00940019  RH  059%=      5-min Rain = 0
KCO1 131845Z 14003KT 09/02 A3003 RMK A01 T00940021  RH  060%=      5-min Rain = 0
KCO1 131846Z 13002KT 10/02 A3003 RMK A01 T00950021  RH  060%=      5-min Rain = 0
KCO1 131847Z 13002KT 10/02 A3003 RMK A01 T00960021  RH  060%=      5-min Rain = 0
KCO1 131848Z 11003KT 10/02 A3003 RMK A01 T00960022  RH  060%=      5-min Rain = 0
KCO1 131849Z 12004KT 10/02 A3003 RMK A01 T00960021  RH  060%=      5-min Rain = 0
KCO1 131850Z 11002KT 10/02 A3003 RMK A01 T00960020  RH  059%=      5-min Rain = 0
KCO1 131851Z 11003KT 10/02 A3003 RMK A01 T00950020  RH  059%=      5-min Rain = 0
KCO1 131852Z 12002KT 10/02 A3003 RMK A01 T00950021  RH  060%=      5-min Rain = 0
KCO1 131853Z 11002KT 10/02 A3003 RMK A01 T00950020  RH  059%=      5-min Rain = 0
KCO1 131854Z 11002KT 10/02 A3003 RMK A01 T00950021  RH  060%=      5-min Rain = 0
KCO1 131855Z 10002KT 10/02 A3002 RMK A01 T00950021  RH  060%=      5-min Rain = 0
KCO1 131856Z 13003KT 10/02 A3002 RMK A01 T00950022  RH  060%=      5-min Rain = 0
KCO1 131857Z 11003KT 10/02 A3002 RMK A01 T00960023  RH  060%=      5-min Rain = 0
KCO1 131858Z 13003KT 10/02 A3002 RMK A01 T00970022  RH  059%=      5-min Rain = 0
KCO1 131859Z 11003KT 10/02 A3002 RMK A01 T00960022  RH  060%=      5-min Rain = 0
KCO1 131900Z 15002KT 10/02 A3002 RMK A01 T00960023  RH  060%=      5-min Rain = 0
KCO1 131901Z 16003KT 10/02 A3002 RMK A01 T00970023  RH  060%=      5-min Rain = 0
KCO1 131902Z 15003KT 10/02 A3002 RMK A01 T00970022  RH  060%=      5-min Rain = 0
KCO1 131903Z 13003KT 10/02 A3002 RMK A01 T00970023  RH  060%=      5-min Rain = 0
KCO1 131904Z 13002KT 10/02 A3002 RMK A01 T00960022  RH  060%=      5-min Rain = 0
KCO1 131905Z 13003KT 10/02 A3002 RMK A01 T00960023  RH  060%=      5-min Rain = 0
KCO1 131906Z 15002KT 10/02 A3001 RMK A01 T00960023  RH  060%=      5-min Rain = 0
KCO1 131907Z 13003KT 10/02 A3001 RMK A01 T00960024  RH  061%=      5-min Rain = 0
KCO1 131908Z 13003KT 10/02 A3001 RMK A01 T00960023  RH  060%=      5-min Rain = 0
KCO1 131909Z 12003KT 10/02 A3001 RMK A01 T00960023  RH  060%=      5-min Rain = 0
KCO1 131910Z 15004KT 10/02 A3001 RMK A01 T00970024  RH  061%=      5-min Rain = 0
KCO1 131911Z 14004KT 10/03 A3001 RMK A01 T00970027  RH  061%=      5-min Rain = 0
KCO1 131912Z 12003KT 10/03 A3001 RMK A01 T00980025  RH  061%=      5-min Rain = 0
KCO1 131913Z 12003KT 10/03 A3001 RMK A01 T00980025  RH  060%=      5-min Rain = 0
KCO1 131914Z 13002KT 10/03 A3001 RMK A01 T00980025  RH  060%=      5-min Rain = 0
KCO1 131915Z 12003KT 10/03 A30 RMK A01 T00980025  RH  060%=      5-min Rain = 0
KCO1 131916Z 12002KT 10/03 A30 RMK A01 T00980025  RH  060%=      5-min Rain = 0
KCO1 131917Z 16004KT 10/03 A30 RMK A01 T00980027  RH  061%=      5-min Rain = 0
KCO1 131918Z 16004KT 10/03 A30 RMK A01 T00990027  RH  061%=      5-min Rain = 0
KCO1 131919Z 17003KT 10/03 A30 RMK A01 T00990026  RH  061%=      5-min Rain = 0
KCO1 131920Z 17003KT 10/03 A30 RMK A01 T00990026  RH  060%=      5-min Rain = 0
KCO1 131921Z 17002KT 10/03 A30 RMK A01 T00990026  RH  061%=      5-min Rain = 0
KCO1 131922Z 14003KT 10/03 A30 RMK A01 T00990026  RH  061%=      5-min Rain = 0
KCO1 131923Z 13003KT 10/03 A30 RMK A01 T00990026  RH  061%=      5-min Rain = 0
KCO1 131924Z 13004KT 10/03 A30 RMK A01 T00990025  RH  060%=      5-min Rain = 0
KCO1 131925Z 14003KT 10/03 A30 RMK A01 T00980025  RH  060%=      5-min Rain = 0
KCO1 131926Z 15003KT 10/03 A30 RMK A01 T00980025  RH  061%=      5-min Rain = 0
KCO1 131927Z 14004KT 10/03 A30 RMK A01 T00980027  RH  061%=      5-min Rain = 0
KCO1 131928Z 13004KT 10/03 A30 RMK A01 T00990028  RH  061%=      5-min Rain = 0
KCO1 131929Z 12004KT 10/03 A30 RMK A01 T00990027  RH  061%=      5-min Rain = 0
KCO1 131930Z 12003KT 10/03 A2999 RMK A01 T00990026  RH  060%=      5-min Rain = 0
KCO1 131931Z 15004KT 10/03 A2999 RMK A01 T00990027  RH  061%=      5-min Rain = 0
KCO1 131932Z 15004KT 10/03 A2999 RMK A01 T00990027  RH  061%=      5-min Rain = 0
KCO1 131933Z 14004KT 10/03 A2999 RMK A01 T01000027  RH  060%=      5-min Rain = 0
KCO1 131934Z 15005KT 10/03 A2999 RMK A01 T01000028  RH  061%=      5-min Rain = 0
KCO1 131935Z 15005KT 10/03 A2999 RMK A01 T01000028  RH  061%=      5-min Rain = 0
KCO1 131936Z 16004KT 10/03 A2999 RMK A01 T01010027  RH  060%=      5-min Rain = 0
KCO1 131937Z 16004KT 10/03 A2999 RMK A01 T01000027  RH  060%=      5-min Rain = 0
KCO1 131938Z 16003KT 10/03 A2999 RMK A01 T01000026  RH  060%=      5-min Rain = 0
KCO1 131939Z 16003KT 10/03 A2999 RMK A01 T01000026  RH  060%=      5-min Rain = 0
KCO1 131940Z 14003KT 10/03 A2999 RMK A01 T01000026  RH  060%=      5-min Rain = 0
KCO1 131941Z 15005KT 10/03 A2999 RMK A01 T01000027  RH  060%=      5-min Rain = 0
KCO1 131942Z 16004KT 10/03 A2999 RMK A01 T01000026  RH  060%=      5-min Rain = 0
KCO1 131943Z 16004KT 10/03 A2999 RMK A01 T01000026  RH  060%=      5-min Rain = 0
KCO1 131944Z 16003KT 10/03 A2999 RMK A01 T01000026  RH  060%=      5-min Rain = 0
KCO1 131945Z 15004KT 10/03 A2999 RMK A01 T01000026  RH  060%=      5-min Rain = 0
KCO1 131946Z 15004KT 10/03 A2999 RMK A01 T01000027  RH  060%=      5-min Rain = 0
KCO1 131947Z 15004KT 10/03 A2999 RMK A01 T01010028  RH  061%=      5-min Rain = 0
KCO1 131948Z 16004KT 10/03 A2999 RMK A01 T01010028  RH  060%=      5-min Rain = 0
KCO1 131949Z 16003KT 10/03 A2999 RMK A01 T01020027  RH  060%=      5-min Rain = 0
KCO1 131950Z 14002KT 10/03 A2999 RMK A01 T01020027  RH  060%=      5-min Rain = 0
KCO1 131951Z 13004KT 10/03 A2999 RMK A01 T01020029  RH  060%=      5-min Rain = 0
KCO1 131952Z 12004KT 10/03 A2999 RMK A01 T01030028  RH  060%=      5-min Rain = 0
KCO1 131953Z 13004KT 10/03 A2998 RMK A01 T01030028  RH  060%=      5-min Rain = 0
KCO1 131954Z 13004KT 10/03 A2998 RMK A01 T01030027  RH  059%=      5-min Rain = 0
KCO1 131955Z 14003KT 10/03 A2998 RMK A01 T01040028  RH  059%=      5-min Rain = 0
KCO1 131956Z 15002KT 10/03 A2998 RMK A01 T01040028  RH  060%=      5-min Rain = 0
KCO1 131957Z 13003KT 10/03 A2998 RMK A01 T01040029  RH  060%=      5-min Rain = 0
KCO1 131958Z 13004KT 11/03 A2998 RMK A01 T01050027  RH  058%=      5-min Rain = 0
KCO1 131959Z 13003KT 11/03 A2998 RMK A01 T01050027  RH  059%=      5-min Rain = 0
KCO1 132000Z 14002KT 11/03 A2998 RMK A01 T01050026  RH  058%=      5-min Rain = 0
KCO1 132001Z 15003KT 11/03 A2998 RMK A01 T01050025  RH  058%=      5-min Rain = 0
KCO1 132002Z 17003KT 11/03 A2998 RMK A01 T01050027  RH  058%=      5-min Rain = 0
KCO1 132003Z 17002KT 11/03 A2998 RMK A01 T01050026  RH  058%=      5-min Rain = 0
KCO1 132004Z 14003KT 11/03 A2998 RMK A01 T01050029  RH  059%=      5-min Rain = 0
KCO1 132005Z 15003KT 11/03 A2998 RMK A01 T01060029  RH  059%=      5-min Rain = 0
KCO1 132006Z 16002KT 11/03 A2998 RMK A01 T01060027  RH  058%=      5-min Rain = 0
KCO1 132007Z 12002KT 11/03 A2998 RMK A01 T01060027  RH  058%=      5-min Rain = 0
KCO1 132008Z 13003KT 11/03 A2998 RMK A01 T01060029  RH  059%=      5-min Rain = 0
KCO1 132009Z 14003KT 11/03 A2998 RMK A01 T01070028  RH  058%=      5-min Rain = 0
KCO1 132010Z 15002KT 11/03 A2998 RMK A01 T01070027  RH  057%=      5-min Rain = 0
KCO1 132011Z 14003KT 11/03 A2997 RMK A01 T01070026  RH  057%=      5-min Rain = 0
KCO1 132012Z 14004KT 11/03 A2997 RMK A01 T01080027  RH  057%=      5-min Rain = 0
KCO1 132013Z 13004KT 11/03 A2997 RMK A01 T01080027  RH  057%=      5-min Rain = 0
KCO1 132014Z 14003KT 11/03 A2997 RMK A01 T01080026  RH  057%=      5-min Rain = 0
KCO1 132015Z 14004KT 11/03 A2997 RMK A01 T01090027  RH  057%=      5-min Rain = 0
KCO1 132016Z 12004KT 11/03 A2997 RMK A01 T01090026  RH  057%=      5-min Rain = 0
KCO1 132017Z 12003KT 11/03 A2997 RMK A01 T01090026  RH  057%=      5-min Rain = 0
KCO1 132018Z 16003KT 11/03 A2997 RMK A01 T01090028  RH  057%=      5-min Rain = 0
KCO1 132019Z 16004KT 11/03 A2997 RMK A01 T01090027  RH  057%=      5-min Rain = 0
KCO1 132020Z 14004KT 11/03 A2997 RMK A01 T01090026  RH  057%=      5-min Rain = 0
KCO1 132021Z 14003KT 11/03 A2997 RMK A01 T01090026  RH  056%=      5-min Rain = 0
KCO1 132022Z 14003KT 11/03 A2997 RMK A01 T01090027  RH  057%=      5-min Rain = 0
KCO1 132023Z 15003KT 11/03 A2997 RMK A01 T01090027  RH  057%=      5-min Rain = 0
KCO1 132024Z 16003KT 11/03 A2997 RMK A01 T01090026  RH  056%=      5-min Rain = 0
KCO1 132025Z 13003KT 11/03 A2997 RMK A01 T01090026  RH  056%=      5-min Rain = 0
KCO1 132026Z 13004KT 11/03 A2997 RMK A01 T01090027  RH  057%=      5-min Rain = 0
KCO1 132027Z 13003KT 11/03 A2997 RMK A01 T01090027  RH  057%=      5-min Rain = 0
KCO1 132028Z 14003KT 11/03 A2997 RMK A01 T01100028  RH  057%=      5-min Rain = 0
KCO1 132029Z 15004KT 11/03 A2997 RMK A01 T01100028  RH  057%=      5-min Rain = 0
KCO1 132030Z 12003KT 11/03 A2997 RMK A01 T01110028  RH  057%=      5-min Rain = 0
KCO1 132031Z 14003KT 11/03 A2997 RMK A01 T01110029  RH  057%=      5-min Rain = 0
KCO1 132032Z 15004KT 11/03 A2997 RMK A01 T01120028  RH  056%=      5-min Rain = 0
KCO1 132033Z 15004KT 11/03 A2997 RMK A01 T01110027  RH  056%=      5-min Rain = 0
KCO1 132034Z 15003KT 11/03 A2997 RMK A01 T01120028  RH  056%=      5-min Rain = 0
KCO1 132035Z 15004KT 11/03 A2996 RMK A01 T01120028  RH  056%=      5-min Rain = 0
KCO1 132036Z 15004KT 11/03 A2996 RMK A01 T01130030  RH  057%=      5-min Rain = 0
KCO1 132037Z 14005KT 11/03 A2996 RMK A01 T01140029  RH  056%=      5-min Rain = 0
KCO1 132038Z 13004KT 11/03 A2996 RMK A01 T01140028  RH  056%=      5-min Rain = 0
KCO1 132039Z 13003KT 11/03 A2996 RMK A01 T01130028  RH  056%=      5-min Rain = 0
KCO1 132040Z 11004KT 11/03 A2996 RMK A01 T01130028  RH  056%=      5-min Rain = 0
KCO1 132041Z 11004KT 11/03 A2996 RMK A01 T01130027  RH  055%=      5-min Rain = 0
KCO1 132042Z 11003KT 11/03 A2996 RMK A01 T01130028  RH  056%=      5-min Rain = 0
KCO1 132043Z 10003KT 11/03 A2996 RMK A01 T01140029  RH  056%=      5-min Rain = 0
KCO1 132044Z 12004KT 12/03 A2996 RMK A01 T01150030  RH  056%=      5-min Rain = 0
KCO1 132045Z 13004KT 12/03 A2996 RMK A01 T01150029  RH  056%=      5-min Rain = 0
KCO1 132046Z 13004KT 12/03 A2996 RMK A01 T01150029  RH  055%=      5-min Rain = 0
KCO1 132047Z 14003KT 12/03 A2996 RMK A01 T01150028  RH  055%=      5-min Rain = 0
KCO1 132048Z 14005KT 12/03 A2996 RMK A01 T01150029  RH  055%=      5-min Rain = 0
KCO1 132049Z 14004KT 12/03 A2996 RMK A01 T01150029  RH  055%=      5-min Rain = 0
KCO1 132050Z 15003KT 12/03 A2996 RMK A01 T01160030  RH  056%=      5-min Rain = 0
KCO1 132051Z 16004KT 12/03 A2996 RMK A01 T01170030  RH  055%=      5-min Rain = 0
KCO1 132052Z 14004KT 12/03 A2996 RMK A01 T01170030  RH  055%=      5-min Rain = 0
KCO1 132053Z 14003KT 12/03 A2996 RMK A01 T01170030  RH  055%=      5-min Rain = 0
KCO1 132054Z 14003KT 12/03 A2996 RMK A01 T01180031  RH  055%=      5-min Rain = 0
KCO1 132055Z 15003KT 12/03 A2995 RMK A01 T01190031  RH  055%=      5-min Rain = 0
KCO1 132056Z 15004KT 12/03 A2995 RMK A01 T01190031  RH  055%=      5-min Rain = 0
KCO1 132057Z 14004KT 12/03 A2995 RMK A01 T01190030  RH  055%=      5-min Rain = 0
KCO1 132058Z 13005KT 12/03 A2995 RMK A01 T01190031  RH  055%=      5-min Rain = 0
KCO1 132059Z 14004KT 12/03 A2995 RMK A01 T01200032  RH  055%=      5-min Rain = 0
KCO1 132100Z 12004KT 12/03 A2995 RMK A01 T01200031  RH  055%=      5-min Rain = 0
KCO1 132101Z 13004KT 12/03 A2995 RMK A01 T01200032  RH  055%=      5-min Rain = 0
KCO1 132102Z 13003KT 12/03 A2995 RMK A01 T01210032  RH  055%=      5-min Rain = 0
KCO1 132103Z 15002KT 12/03 A2995 RMK A01 T01210031  RH  054%=      5-min Rain = 0
KCO1 132104Z 14005KT 12/03 A2995 RMK A01 T01210033  RH  055%=      5-min Rain = 0
KCO1 132105Z 13004KT 12/03 A2995 RMK A01 T01220032  RH  054%=      5-min Rain = 0
KCO1 132106Z 13004KT 12/03 A2995 RMK A01 T01220034  RH  055%=      5-min Rain = 0
KCO1 132107Z 13004KT 12/03 A2995 RMK A01 T01230034  RH  054%=      5-min Rain = 0
KCO1 132108Z 13004KT 12/03 A2995 RMK A01 T01230034  RH  055%=      5-min Rain = 0
KCO1 132109Z 13005KT 12/03 A2995 RMK A01 T01230033  RH  054%=      5-min Rain = 0
KCO1 132110Z 13004KT 12/03 A2995 RMK A01 T01230033  RH  054%=      5-min Rain = 0
KCO1 132111Z 14005KT 12/03 A2995 RMK A01 T01220032  RH  054%=      5-min Rain = 0
KCO1 132112Z 14006KT 12/03 A2994 RMK A01 T01220034  RH  055%=      5-min Rain = 0
KCO1 132113Z 16005KT 12/04 A2994 RMK A01 T01230036  RH  055%=      5-min Rain = 0
KCO1 132114Z 17004KT 12/03 A2994 RMK A01 T01230033  RH  054%=      5-min Rain = 0
KCO1 132115Z 16003KT 12/03 A2994 RMK A01 T01230032  RH  054%=      5-min Rain = 0
KCO1 132116Z 15003KT 12/03 A2994 RMK A01 T01230034  RH  055%=      5-min Rain = 0
KCO1 132117Z 15004KT 12/04 A2994 RMK A01 T01230035  RH  055%=      5-min Rain = 0
KCO1 132118Z 14005KT 12/04 A2994 RMK A01 T01240036  RH  055%=      5-min Rain = 0
KCO1 132119Z 15004KT 12/03 A2994 RMK A01 T01240034  RH  054%=      5-min Rain = 0
KCO1 132120Z 14004KT 12/03 A2994 RMK A01 T01240034  RH  054%=      5-min Rain = 0
KCO1 132121Z 14004KT 12/03 A2994 RMK A01 T01230033  RH  054%=      5-min Rain = 0
KCO1 132122Z 13004KT 12/03 A2994 RMK A01 T01240034  RH  055%=      5-min Rain = 0
KCO1 132123Z 13004KT 12/04 A2994 RMK A01 T01240035  RH  055%=      5-min Rain = 0
KCO1 132124Z 14004KT 12/04 A2994 RMK A01 T01240035  RH  055%=      5-min Rain = 0
KCO1 132125Z 13004KT 12/04 A2994 RMK A01 T01240035  RH  055%=      5-min Rain = 0
KCO1 132126Z 12004KT 12/04 A2994 RMK A01 T01240036  RH  055%=      5-min Rain = 0
KCO1 132127Z 14004KT 12/04 A2994 RMK A01 T01240037  RH  055%=      5-min Rain = 0
KCO1 132128Z 14004KT 13/04 A2994 RMK A01 T01250038  RH  055%=      5-min Rain = 0
KCO1 132129Z 14004KT 13/04 A2994 RMK A01 T01260038  RH  055%=      5-min Rain = 0
KCO1 132130Z 12004KT 13/04 A2994 RMK A01 T01260038  RH  055%=      5-min Rain = 0
KCO1 132131Z 13003KT 13/04 A2994 RMK A01 T01260039  RH  055%=      5-min Rain = 0
KCO1 132132Z 13003KT 13/04 A2994 RMK A01 T01270037  RH  054%=      5-min Rain = 0
KCO1 132133Z 14003KT 13/04 A2994 RMK A01 T01260038  RH  055%=      5-min Rain = 0
KCO1 132134Z 13002KT 13/04 A2994 RMK A01 T01260039  RH  055%=      5-min Rain = 0
KCO1 132135Z 12003KT 13/04 A2994 RMK A01 T01270039  RH  055%=      5-min Rain = 0
KCO1 132136Z 12003KT 13/04 A2994 RMK A01 T01270039  RH  055%=      5-min Rain = 0
KCO1 132137Z 12004KT 13/04 A2994 RMK A01 T01270039  RH  055%=      5-min Rain = 0
KCO1 132138Z 13004KT 13/04 A2994 RMK A01 T01280039  RH  055%=      5-min Rain = 0
KCO1 132139Z 12004KT 13/04 A2994 RMK A01 T01280039  RH  055%=      5-min Rain = 0
KCO1 132140Z 12003KT 13/04 A2994 RMK A01 T01280040  RH  055%=      5-min Rain = 0
KCO1 132141Z 14002KT 13/04 A2994 RMK A01 T01280038  RH  055%=      5-min Rain = 0
KCO1 132142Z 13004KT 13/04 A2994 RMK A01 T01270039  RH  055%=      5-min Rain = 0
KCO1 132143Z 13003KT 13/04 A2994 RMK A01 T01270038  RH  055%=      5-min Rain = 0
KCO1 132144Z 13003KT 13/04 A2994 RMK A01 T01280039  RH  055%=      5-min Rain = 0
KCO1 132145Z 13003KT 13/04 A2994 RMK A01 T01280039  RH  055%=      5-min Rain = 0
KCO1 132146Z 13003KT 13/04 A2994 RMK A01 T01270038  RH  055%=      5-min Rain = 0
KCO1 132147Z 14004KT 13/04 A2994 RMK A01 T01270040  RH  055%=      5-min Rain = 0
KCO1 132148Z 13004KT 13/04 A2994 RMK A01 T01270039  RH  055%=      5-min Rain = 0
KCO1 132149Z 14004KT 13/04 A2994 RMK A01 T01270041  RH  056%=      5-min Rain = 0
KCO1 132150Z 15004KT 13/04 A2994 RMK A01 T01270041  RH  056%=      5-min Rain = 0
KCO1 132151Z 14003KT 13/04 A2993 RMK A01 T01280041  RH  056%=      5-min Rain = 0
KCO1 132152Z 15003KT 13/04 A2993 RMK A01 T01280041  RH  056%=      5-min Rain = 0
KCO1 132153Z 15004KT 13/04 A2993 RMK A01 T01280042  RH  056%=      5-min Rain = 0
KCO1 132154Z 15003KT 13/04 A2993 RMK A01 T01280040  RH  055%=      5-min Rain = 0
KCO1 132155Z 15004KT 13/04 A2993 RMK A01 T01280041  RH  055%=      5-min Rain = 0
KCO1 132156Z 13003KT 13/04 A2993 RMK A01 T01280041  RH  055%=      5-min Rain = 0
KCO1 132157Z 14003KT 13/04 A2993 RMK A01 T01280042  RH  056%=      5-min Rain = 0
KCO1 132158Z 14003KT 13/04 A2993 RMK A01 T01280043  RH  056%=      5-min Rain = 0
KCO1 132159Z 14003KT 13/04 A2993 RMK A01 T01290042  RH  056%=      5-min Rain = 0
KCO1 132200Z 14004KT 13/04 A2993 RMK A01 T01290042  RH  055%=      5-min Rain = 0
KCO1 132201Z 13003KT 13/04 A2993 RMK A01 T01290042  RH  055%=      5-min Rain = 0
KCO1 132202Z 13003KT 13/04 A2993 RMK A01 T01290043  RH  056%=      5-min Rain = 0
KCO1 132203Z 14003KT 13/04 A2993 RMK A01 T01290043  RH  056%=      5-min Rain = 0
KCO1 132204Z 14003KT 13/04 A2993 RMK A01 T01290044  RH  056%=      5-min Rain = 0
KCO1 132205Z 14005KT 13/04 A2993 RMK A01 T01290043  RH  056%=      5-min Rain = 0
KCO1 132206Z 15003KT 13/04 A2993 RMK A01 T01290042  RH  055%=      5-min Rain = 0
KCO1 132207Z 14004KT 13/04 A2992 RMK A01 T01290043  RH  056%=      5-min Rain = 0
KCO1 132208Z 14004KT 13/04 A2993 RMK A01 T01300044  RH  056%=      5-min Rain = 0
KCO1 132209Z 13004KT 13/05 A2993 RMK A01 T01300045  RH  056%=      5-min Rain = 0
KCO1 132210Z 14004KT 13/04 A2993 RMK A01 T01310044  RH  056%=      5-min Rain = 0
KCO1 132211Z 14004KT 13/04 A2993 RMK A01 T01300043  RH  055%=      5-min Rain = 0
KCO1 132212Z 13003KT 13/04 A2993 RMK A01 T01300043  RH  055%=      5-min Rain = 0
KCO1 132213Z 14002KT 13/04 A2993 RMK A01 T01300043  RH  055%=      5-min Rain = 0
KCO1 132214Z 14003KT 13/05 A2992 RMK A01 T01310045  RH  056%=      5-min Rain = 0
KCO1 132215Z 14002KT 13/05 A2992 RMK A01 T01320046  RH  056%=      5-min Rain = 0
KCO1 132216Z 14002KT 13/05 A2992 RMK A01 T01320047  RH  056%=      5-min Rain = 0
KCO1 132217Z 17002KT 13/05 A2992 RMK A01 T01330045  RH  055%=      5-min Rain = 0
KCO1 132218Z 17002KT 13/05 A2992 RMK A01 T01330045  RH  055%=      5-min Rain = 0
KCO1 132219Z 18002KT 13/05 A2992 RMK A01 T01330045  RH  055%=      5-min Rain = 0
KCO1 132220Z 15002KT 13/05 A2992 RMK A01 T01330045  RH  055%=      5-min Rain = 0
KCO1 132221Z 15002KT 13/05 A2992 RMK A01 T01330046  RH  056%=      5-min Rain = 0
KCO1 132222Z 17002KT 13/05 A2992 RMK A01 T01340047  RH  056%=      5-min Rain = 0
KCO1 132223Z 18003KT 13/05 A2992 RMK A01 T01340047  RH  055%=      5-min Rain = 0
KCO1 132224Z 19002KT 13/05 A2992 RMK A01 T01340045  RH  055%=      5-min Rain = 0
KCO1 132225Z 19001KT 13/05 A2992 RMK A01 T01340045  RH  055%=      5-min Rain = 0
KCO1 132226Z 12002KT 13/05 A2992 RMK A01 T01340047  RH  055%=      5-min Rain = 0
KCO1 132227Z 10002KT 14/05 A2992 RMK A01 T01350047  RH  055%=      5-min Rain = 0
KCO1 132228Z 11002KT 13/05 A2992 RMK A01 T01340046  RH  055%=      5-min Rain = 0
KCO1 132229Z 12002KT 14/05 A2992 RMK A01 T01350045  RH  054%=      5-min Rain = 0
KCO1 132230Z 11002KT 13/05 A2992 RMK A01 T01340045  RH  055%=      5-min Rain = 0
KCO1 132231Z 11002KT 13/05 A2992 RMK A01 T01340045  RH  055%=      5-min Rain = 0
KCO1 132232Z 12001KT 13/05 A2992 RMK A01 T01340046  RH  055%=      5-min Rain = 0
KCO1 132233Z 12001KT 13/05 A2992 RMK A01 T01340045  RH  055%=      5-min Rain = 0
KCO1 132234Z 08001KT 13/05 A2992 RMK A01 T01340046  RH  055%=      5-min Rain = 0
KCO1 132235Z 05001KT 13/05 A2992 RMK A01 T01340047  RH  056%=      5-min Rain = 0
KCO1 132236Z 07001KT 13/05 A2992 RMK A01 T01340048  RH  056%=      5-min Rain = 0
KCO1 132237Z 06001KT 14/05 A2992 RMK A01 T01350049  RH  056%=      5-min Rain = 0
KCO1 132238Z 05002KT 14/05 A2992 RMK A01 T01350049  RH  056%=      5-min Rain = 0
KCO1 132239Z 04002KT 14/05 A2992 RMK A01 T01350047  RH  055%=      5-min Rain = 0
KCO1 132240Z 02002KT 14/05 A2992 RMK A01 T01350048  RH  056%=      5-min Rain = 0
KCO1 132241Z 01002KT 13/05 A2992 RMK A01 T01340047  RH  056%=      5-min Rain = 0
KCO1 132242Z 02002KT 13/05 A2992 RMK A01 T01340047  RH  056%=      5-min Rain = 0
KCO1 132243Z 02001KT 13/05 A2992 RMK A01 T01340049  RH  056%=      5-min Rain = 0
KCO1 132244Z 02001KT 14/05 A2992 RMK A01 T01350047  RH  056%=      5-min Rain = 0
KCO1 132245Z 02001KT 13/05 A2992 RMK A01 T01340047  RH  055%=      5-min Rain = 0
KCO1 132246Z 02001KT 13/05 A2992 RMK A01 T01340047  RH  056%=      5-min Rain = 0
KCO1 132247Z 02001KT 13/05 A2992 RMK A01 T01340047  RH  055%=      5-min Rain = 0
KCO1 132248Z 03001KT 13/05 A2992 RMK A01 T01340047  RH  055%=      5-min Rain = 0
KCO1 132249Z 03001KT 13/05 A2992 RMK A01 T01340048  RH  056%=      5-min Rain = 0
KCO1 132250Z 03001KT 14/05 A2992 RMK A01 T01350049  RH  056%=      5-min Rain = 0
KCO1 132251Z 03001KT 14/05 A2992 RMK A01 T01350049  RH  056%=      5-min Rain = 0
KCO1 132252Z 03001KT 13/05 A2992 RMK A01 T01340049  RH  056%=      5-min Rain = 0
KCO1 132253Z 03001KT 13/05 A2992 RMK A01 T01340048  RH  056%=      5-min Rain = 0
KCO1 132254Z 03001KT 13/05 A2992 RMK A01 T01340051  RH  057%=      5-min Rain = 0
KCO1 132255Z 04001KT 13/05 A2992 RMK A01 T01340049  RH  056%=      5-min Rain = 0
KCO1 132256Z 04001KT 13/05 A2992 RMK A01 T01340049  RH  056%=      5-min Rain = 0
KCO1 132257Z 04001KT 13/05 A2992 RMK A01 T01340051  RH  057%=      5-min Rain = 0
KCO1 132258Z 04001KT 13/05 A2992 RMK A01 T01340051  RH  057%=      5-min Rain = 0
KCO1 132259Z 04001KT 13/05 A2992 RMK A01 T01330051  RH  057%=      5-min Rain = 0
KCO1 132300Z 04001KT 13/05 A2992 RMK A01 T01330052  RH  058%=      5-min Rain = 0
KCO1 132301Z 04000KT 13/05 A2992 RMK A01 T01330052  RH  058%=      5-min Rain = 0
KCO1 132302Z 00000KT 13/05 A2992 RMK A01 T01330050  RH  057%=      5-min Rain = 0
KCO1 132303Z 00000KT 13/05 A2992 RMK A01 T01330051  RH  057%=      5-min Rain = 0
KCO1 132304Z 00000KT 13/05 A2992 RMK A01 T01330050  RH  057%=      5-min Rain = 0
KCO1 132305Z 00000KT 13/05 A2992 RMK A01 T01330052  RH  058%=      5-min Rain = 0
KCO1 132306Z 00000KT 13/05 A2992 RMK A01 T01330052  RH  058%=      5-min Rain = 0
KCO1 132307Z 00000KT 13/05 A2992 RMK A01 T01330051  RH  058%=      5-min Rain = 0
KCO1 132308Z 00000KT 13/05 A2992 RMK A01 T01330051  RH  058%=      5-min Rain = 0
KCO1 132309Z 10000KT 13/05 A2992 RMK A01 T01320051  RH  058%=      5-min Rain = 0
KCO1 132310Z 10001KT 13/05 A2992 RMK A01 T01320051  RH  058%=      5-min Rain = 0
KCO1 132311Z 11001KT 13/05 A2992 RMK A01 T01320051  RH  058%=      5-min Rain = 0
KCO1 132312Z 11001KT 13/05 A2992 RMK A01 T01320053  RH  059%=      5-min Rain = 0
KCO1 132313Z 11002KT 13/06 A2992 RMK A01 T01320056  RH  060%=      5-min Rain = 0
KCO1 132314Z 11002KT 13/06 A2992 RMK A01 T01310056  RH  060%=      5-min Rain = 0
KCO1 132315Z 11002KT 13/06 A2992 RMK A01 T01310057  RH  061%=      5-min Rain = 0
KCO1 132316Z 11001KT 13/06 A2992 RMK A01 T01300057  RH  061%=      5-min Rain = 0
KCO1 132317Z 11001KT 13/06 A2992 RMK A01 T01300058  RH  062%=      5-min Rain = 0
KCO1 132318Z 11001KT 13/06 A2992 RMK A01 T01300058  RH  062%=      5-min Rain = 0
KCO1 132319Z 11001KT 13/06 A2992 RMK A01 T01290057  RH  062%=      5-min Rain = 0
KCO1 132320Z 11001KT 13/06 A2992 RMK A01 T01290059  RH  062%=      5-min Rain = 0
KCO1 132321Z 11001KT 13/06 A2992 RMK A01 T01290061  RH  064%=      5-min Rain = 0
KCO1 132322Z 11001KT 13/06 A2992 RMK A01 T01290062  RH  064%=      5-min Rain = 0
KCO1 132323Z 11001KT 13/06 A2992 RMK A01 T01280062  RH  064%=      5-min Rain = 0
KCO1 132324Z 09002KT 13/06 A2992 RMK A01 T01280063  RH  064%=      5-min Rain = 0
KCO1 132325Z 08002KT 13/06 A2992 RMK A01 T01270060  RH  064%=      5-min Rain = 0
KCO1 132326Z 08002KT 13/06 A2992 RMK A01 T01270061  RH  064%=      5-min Rain = 0
KCO1 132327Z 07002KT 13/06 A2992 RMK A01 T01260063  RH  065%=      5-min Rain = 0
KCO1 132328Z 07002KT 13/07 A2992 RMK A01 T01260066  RH  067%=      5-min Rain = 0
KCO1 132329Z 06002KT 13/07 A2992 RMK A01 T01250069  RH  068%=      5-min Rain = 0
KCO1 132330Z 06003KT 13/07 A2992 RMK A01 T01250070  RH  069%=      5-min Rain = 0
KCO1 132331Z 05002KT 12/07 A2992 RMK A01 T01240067  RH  068%=      5-min Rain = 0
KCO1 132332Z 05002KT 12/07 A2992 RMK A01 T01230068  RH  069%=      5-min Rain = 0
KCO1 132333Z 05002KT 12/07 A2992 RMK A01 T01230069  RH  070%=      5-min Rain = 0
KCO1 132334Z 05002KT 12/07 A2992 RMK A01 T01220069  RH  070%=      5-min Rain = 0
KCO1 132335Z 05002KT 12/07 A2992 RMK A01 T01220066  RH  069%=      5-min Rain = 0
KCO1 132336Z 07003KT 12/06 A2992 RMK A01 T01220063  RH  067%=      5-min Rain = 0
KCO1 132337Z 07002KT 12/06 A2992 RMK A01 T01210062  RH  067%=      5-min Rain = 0
KCO1 132338Z 07002KT 12/06 A2992 RMK A01 T01210062  RH  067%=      5-min Rain = 0
KCO1 132339Z 07003KT 12/06 A2992 RMK A01 T01210064  RH  068%=      5-min Rain = 0
KCO1 132340Z 07003KT 12/06 A2992 RMK A01 T01210061  RH  067%=      5-min Rain = 0
KCO1 132341Z 08003KT 12/06 A2992 RMK A01 T01210061  RH  067%=      5-min Rain = 0
KCO1 132342Z 07003KT 12/06 A2992 RMK A01 T01210060  RH  067%=      5-min Rain = 0
KCO1 132343Z 07003KT 12/06 A2992 RMK A01 T01210061  RH  067%=      5-min Rain = 0
KCO1 132344Z 06003KT 12/06 A2992 RMK A01 T01200060  RH  067%=      5-min Rain = 0
KCO1 132345Z 07003KT 12/06 A2992 RMK A01 T01200060  RH  067%=      5-min Rain = 0
KCO1 132346Z 07003KT 12/06 A2992 RMK A01 T01190060  RH  067%=      5-min Rain = 0
KCO1 132347Z 07003KT 12/06 A2992 RMK A01 T01190059  RH  066%=      5-min Rain = 0
KCO1 132348Z 06003KT 12/06 A2992 RMK A01 T01200058  RH  066%=      5-min Rain = 0
KCO1 132349Z 06003KT 12/06 A2992 RMK A01 T01200059  RH  066%=      5-min Rain = 0
KCO1 132350Z 05003KT 12/06 A2992 RMK A01 T01190059  RH  067%=      5-min Rain = 0
KCO1 132351Z 05003KT 12/06 A2993 RMK A01 T01200062  RH  068%=      5-min Rain = 0
KCO1 132352Z 04003KT 12/06 A2993 RMK A01 T01200063  RH  068%=      5-min Rain = 0
KCO1 132353Z 03003KT 12/06 A2993 RMK A01 T01190063  RH  069%=      5-min Rain = 0
KCO1 132354Z 04003KT 12/06 A2993 RMK A01 T01180062  RH  069%=      5-min Rain = 0
KCO1 132355Z 04004KT 12/06 A2993 RMK A01 T01170062  RH  069%=      5-min Rain = 0
KCO1 132356Z 04004KT 12/06 A2993 RMK A01 T01170062  RH  069%=      5-min Rain = 0
KCO1 132357Z 04003KT 12/06 A2993 RMK A01 T01160060  RH  068%=      5-min Rain = 0
KCO1 132358Z 04003KT 12/06 A2993 RMK A01 T01160058  RH  068%=      5-min Rain = 0
KCO1 132359Z 04003KT 12/06 A2993 RMK A01 T01160058  RH  068%=      5-min Rain = 0
KCO1 140000Z 05003KT 12/06 A2993 RMK A01 T01150058  RH  068%=      5-min Rain = 0
KCO1 140001Z 05004KT 12/06 A2993 RMK A01 T01150058  RH  068%=      5-min Rain = 0
KCO1 140002Z 05004KT 12/06 A2993 RMK A01 T01150058  RH  068%=      5-min Rain = 0
KCO1 140003Z 05004KT 12/06 A2993 RMK A01 T01150058  RH  068%=      5-min Rain = 0
KCO1 140004Z 05004KT 12/06 A2993 RMK A01 T01150058  RH  068%=      5-min Rain = 0
KCO1 140005Z 05004KT 11/06 A2993 RMK A01 T01140058  RH  069%=      5-min Rain = 0
KCO1 140006Z 05004KT 11/06 A2993 RMK A01 T01140058  RH  069%=      5-min Rain = 0
KCO1 140007Z 05004KT 11/06 A2993 RMK A01 T01130058  RH  069%=      5-min Rain = 0
KCO1 140008Z 05005KT 11/06 A2993 RMK A01 T01130058  RH  069%=      5-min Rain = 0
KCO1 140009Z 05005KT 11/06 A2993 RMK A01 T01130059  RH  069%=      5-min Rain = 0
KCO1 140010Z 05005KT 11/06 A2993 RMK A01 T01120059  RH  070%=      5-min Rain = 0
KCO1 140011Z 04005KT 11/06 A2993 RMK A01 T01120059  RH  070%=      5-min Rain = 0
KCO1 140012Z 04006KT 11/06 A2993 RMK A01 T01120060  RH  070%=      5-min Rain = 0
KCO1 140013Z 05006KT 11/06 A2993 RMK A01 T01120060  RH  070%=      5-min Rain = 0
KCO1 140014Z 05006KT 11/06 A2993 RMK A01 T01120059  RH  070%=      5-min Rain = 0
KCO1 140015Z 06007KT 11/06 A2993 RMK A01 T01120056  RH  069%=      5-min Rain = 0
KCO1 140016Z 06006KT 11/05 A2993 RMK A01 T01110053  RH  067%=      5-min Rain = 0
KCO1 140017Z 06006KT 11/05 A2993 RMK A01 T01110052  RH  067%=      5-min Rain = 0
KCO1 140018Z 06007KT 11/05 A2993 RMK A01 T01100050  RH  066%=      5-min Rain = 0
KCO1 140019Z 06006KT 11/05 A2993 RMK A01 T01100049  RH  066%=      5-min Rain = 0
KCO1 140020Z 06006KT 11/05 A2993 RMK A01 T01100049  RH  066%=      5-min Rain = 0
KCO1 140021Z 06007KT 11/05 A2993 RMK A01 T01100049  RH  066%=      5-min Rain = 0
KCO1 140022Z 06007KT 11/05 A2993 RMK A01 T01100048  RH  066%=      5-min Rain = 0
KCO1 140023Z 06006KT 11/05 A2993 RMK A01 T01090048  RH  066%=      5-min Rain = 0
KCO1 140024Z 05004KT 11/05 A2993 RMK A01 T01090048  RH  066%=      5-min Rain = 0
KCO1 140025Z 05004KT 11/05 A2993 RMK A01 T01090048  RH  066%=      5-min Rain = 0
KCO1 140026Z 06004KT 11/05 A2993 RMK A01 T01080048  RH  066%=      5-min Rain = 0
KCO1 140027Z 07005KT 11/05 A2993 RMK A01 T01070048  RH  067%=      5-min Rain = 0
KCO1 140028Z 07005KT 11/05 A2993 RMK A01 T01060047  RH  067%=      5-min Rain = 0
KCO1 140029Z 06005KT 11/05 A2993 RMK A01 T01060047  RH  067%=      5-min Rain = 0
KCO1 140030Z 06005KT 11/05 A2993 RMK A01 T01060046  RH  067%=      5-min Rain = 0
KCO1 140031Z 06005KT 11/05 A2993 RMK A01 T01060046  RH  067%=      5-min Rain = 0
KCO1 140032Z 06005KT 11/05 A2993 RMK A01 T01050045  RH  066%=      5-min Rain = 0
KCO1 140033Z 06006KT 11/04 A2993 RMK A01 T01050044  RH  066%=      5-min Rain = 0
KCO1 140034Z 06005KT 11/04 A2993 RMK A01 T01050043  RH  065%=      5-min Rain = 0
KCO1 140035Z 06005KT 11/04 A2993 RMK A01 T01050043  RH  065%=      5-min Rain = 0
KCO1 140036Z 06005KT 11/04 A2994 RMK A01 T01060044  RH  065%=      5-min Rain = 0
KCO1 140037Z 06004KT 11/04 A2994 RMK A01 T01050043  RH  065%=      5-min Rain = 0
KCO1 140038Z 06005KT 11/04 A2993 RMK A01 T01050044  RH  066%=      5-min Rain = 0
KCO1 140039Z 07006KT 10/04 A2993 RMK A01 T01040043  RH  066%=      5-min Rain = 0
KCO1 140040Z 07006KT 10/04 A2993 RMK A01 T01040043  RH  066%=      5-min Rain = 0
KCO1 140041Z 06005KT 10/04 A2993 RMK A01 T01040043  RH  066%=      5-min Rain = 0
KCO1 140042Z 06004KT 10/04 A2993 RMK A01 T01030043  RH  066%=      5-min Rain = 0
KCO1 140043Z 05004KT 10/04 A2994 RMK A01 T01030043  RH  066%=      5-min Rain = 0
KCO1 140044Z 05004KT 10/04 A2994 RMK A01 T01030043  RH  066%=      5-min Rain = 0
KCO1 140045Z 06005KT 10/04 A2994 RMK A01 T01030043  RH  066%=      5-min Rain = 0
KCO1 140046Z 07006KT 10/04 A2994 RMK A01 T01030043  RH  066%=      5-min Rain = 0
KCO1 140047Z 07006KT 10/04 A2994 RMK A01 T01030043  RH  067%=      5-min Rain = 0
KCO1 140048Z 07005KT 10/04 A2994 RMK A01 T01020044  RH  067%=      5-min Rain = 0
KCO1 140049Z 07005KT 10/04 A2994 RMK A01 T01020044  RH  067%=      5-min Rain = 0
KCO1 140050Z 07005KT 10/05 A2994 RMK A01 T01020045  RH  068%=      5-min Rain = 0
KCO1 140051Z 07005KT 10/05 A2994 RMK A01 T01010045  RH  068%=      5-min Rain = 0
KCO1 140052Z 07005KT 10/04 A2994 RMK A01 T01010044  RH  068%=      5-min Rain = 0
KCO1 140053Z 07005KT 10/04 A2994 RMK A01 T01010044  RH  068%=      5-min Rain = 0
KCO1 140054Z 08005KT 10/04 A2994 RMK A01 T01010044  RH  068%=      5-min Rain = 0
KCO1 140055Z 07005KT 10/04 A2994 RMK A01 T01010044  RH  068%=      5-min Rain = 0
KCO1 140056Z 07004KT 10/05 A2994 RMK A01 T01010045  RH  068%=      5-min Rain = 0
KCO1 140057Z 07005KT 10/05 A2994 RMK A01 T01000045  RH  068%=      5-min Rain = 0
KCO1 140058Z 07005KT 10/04 A2994 RMK A01 T01000044  RH  068%=      5-min Rain = 0
KCO1 140059Z 07005KT 10/05 A2994 RMK A01 T01000045  RH  069%=      5-min Rain = 0
KCO1 140100Z 06004KT 10/05 A2994 RMK A01 T01000045  RH  069%=      5-min Rain = 0
KCO1 140101Z 06005KT 10/05 A2994 RMK A01 T01000045  RH  069%=      5-min Rain = 0
KCO1 140102Z 06005KT 10/05 A2994 RMK A01 T01000045  RH  069%=      5-min Rain = 0
KCO1 140103Z 06005KT 10/05 A2994 RMK A01 T01000045  RH  069%=      5-min Rain = 0
KCO1 140104Z 06005KT 10/04 A2994 RMK A01 T00990044  RH  069%=      5-min Rain = 0
KCO1 140105Z 06005KT 10/04 A2994 RMK A01 T00990044  RH  069%=      5-min Rain = 0
KCO1 140106Z 06006KT 10/04 A2994 RMK A01 T00990044  RH  069%=      5-min Rain = 0
KCO1 140107Z 06006KT 10/04 A2994 RMK A01 T00990044  RH  068%=      5-min Rain = 0
KCO1 140108Z 06006KT 10/04 A2994 RMK A01 T00990043  RH  068%=      5-min Rain = 0
KCO1 140109Z 07006KT 10/04 A2994 RMK A01 T00990043  RH  068%=      5-min Rain = 0
KCO1 140110Z 07006KT 10/04 A2994 RMK A01 T00990043  RH  068%=      5-min Rain = 0
KCO1 140111Z 07006KT 10/04 A2994 RMK A01 T00990043  RH  068%=      5-min Rain = 0
KCO1 140112Z 07005KT 10/04 A2995 RMK A01 T00990042  RH  067%=      5-min Rain = 0
KCO1 140113Z 06005KT 10/04 A2995 RMK A01 T00990041  RH  067%=      5-min Rain = 0
KCO1 140114Z 06007KT 10/04 A2995 RMK A01 T00990041  RH  067%=      5-min Rain = 0
KCO1 140115Z 06006KT 10/04 A2995 RMK A01 T00990041  RH  067%=      5-min Rain = 0
KCO1 140116Z 06005KT 10/04 A2995 RMK A01 T00990041  RH  067%=      5-min Rain = 0
KCO1 140117Z 07006KT 10/04 A2995 RMK A01 T00990040  RH  067%=      5-min Rain = 0
KCO1 140118Z 07008KT 10/04 A2995 RMK A01 T00990040  RH  067%=      5-min Rain = 0
KCO1 140119Z 07007KT 10/04 A2995 RMK A01 T00990040  RH  067%=      5-min Rain = 0
KCO1 140120Z 06006KT 10/04 A2995 RMK A01 T00990040  RH  067%=      5-min Rain = 0
KCO1 140121Z 06004KT 10/04 A2995 RMK A01 T00980040  RH  067%=      5-min Rain = 0
KCO1 140122Z 07005KT 10/04 A2995 RMK A01 T00980040  RH  067%=      5-min Rain = 0
KCO1 140123Z 07006KT 10/04 A2995 RMK A01 T00970041  RH  068%=      5-min Rain = 0
KCO1 140124Z 07008KT 10/04 A2995 RMK A01 T00960041  RH  068%=      5-min Rain = 0
KCO1 140125Z 08007KT 10/04 A2995 RMK A01 T00960041  RH  069%=      5-min Rain = 0
KCO1 140126Z 07007KT 10/04 A2995 RMK A01 T00960041  RH  069%=      5-min Rain = 0
KCO1 140127Z 07006KT 10/04 A2995 RMK A01 T00960042  RH  069%=      5-min Rain = 0
KCO1 140128Z 07006KT 10/04 A2995 RMK A01 T00950042  RH  069%=      5-min Rain = 0
KCO1 140129Z 07006KT 09/04 A2995 RMK A01 T00940042  RH  070%=      5-min Rain = 0
KCO1 140130Z 07006KT 09/04 A2995 RMK A01 T00930042  RH  071%=      5-min Rain = 0
KCO1 140131Z 08007KT 09/04 A2995 RMK A01 T00920042  RH  071%=      5-min Rain = 0
KCO1 140132Z 08007KT 09/04 A2995 RMK A01 T00920043  RH  071%=      5-min Rain = 0
KCO1 140133Z 08006KT 09/04 A2995 RMK A01 T00920043  RH  071%=      5-min Rain = 0
KCO1 140134Z 08006KT 09/04 A2995 RMK A01 T00910043  RH  072%=      5-min Rain = 0
KCO1 140135Z 08005KT 09/04 A2995 RMK A01 T00910043  RH  072%=      5-min Rain = 0
KCO1 140136Z 08006KT 09/04 A2995 RMK A01 T00900043  RH  072%=      5-min Rain = 0
KCO1 140137Z 08006KT 09/04 A2995 RMK A01 T00900043  RH  072%=      5-min Rain = 0
KCO1 140138Z 08007KT 09/04 A2995 RMK A01 T00900043  RH  073%=      5-min Rain = 0
KCO1 140139Z 08007KT 09/04 A2995 RMK A01 T00900043  RH  073%=      5-min Rain = 0
KCO1 140140Z 08006KT 09/04 A2995 RMK A01 T00900044  RH  073%=      5-min Rain = 0
KCO1 140141Z 08007KT 09/04 A2995 RMK A01 T00890043  RH  073%=      5-min Rain = 0
KCO1 140142Z 08006KT 09/04 A2995 RMK A01 T00890044  RH  073%=      5-min Rain = 0
KCO1 140143Z 08007KT 09/04 A2995 RMK A01 T00890044  RH  073%=      5-min Rain = 0
KCO1 140144Z 09007KT 09/04 A2995 RMK A01 T00880043  RH  074%=      5-min Rain = 0
KCO1 140145Z 09007KT 09/04 A2995 RMK A01 T00880043  RH  074%=      5-min Rain = 0
KCO1 140146Z 09007KT 09/04 A2995 RMK A01 T00880044  RH  074%=      5-min Rain = 0
KCO1 140147Z 09007KT 09/04 A2995 RMK A01 T00870043  RH  074%=      5-min Rain = 0
KCO1 140148Z 09007KT 09/04 A2995 RMK A01 T00870043  RH  074%=      5-min Rain = 0
KCO1 140149Z 09007KT 09/04 A2995 RMK A01 T00860044  RH  074%=      5-min Rain = 0
KCO1 140150Z 09007KT 09/04 A2995 RMK A01 T00860043  RH  075%=      5-min Rain = 0
KCO1 140151Z 09006KT 09/04 A2995 RMK A01 T00850043  RH  075%=      5-min Rain = 0
KCO1 140152Z 10007KT 09/04 A2995 RMK A01 T00850043  RH  075%=      5-min Rain = 0
KCO1 140153Z 09007KT 09/04 A2995 RMK A01 T00850044  RH  075%=      5-min Rain = 0
KCO1 140154Z 09007KT 08/04 A2995 RMK A01 T00840044  RH  075%=      5-min Rain = 0
KCO1 140155Z 09007KT 08/04 A2995 RMK A01 T00840044  RH  076%=      5-min Rain = 0
KCO1 140156Z 09007KT 08/04 A2995 RMK A01 T00840043  RH  076%=      5-min Rain = 0
KCO1 140157Z 10006KT 08/04 A2995 RMK A01 T00830043  RH  076%=      5-min Rain = 0
KCO1 140158Z 09006KT 08/04 A2996 RMK A01 T00830043  RH  076%=      5-min Rain = 0
KCO1 140159Z 09007KT 08/04 A2996 RMK A01 T00820043  RH  076%=      5-min Rain = 0
KCO1 140200Z 09007KT 08/04 A2996 RMK A01 T00820043  RH  077%=      5-min Rain = 0
KCO1 140201Z 09006KT 08/04 A2996 RMK A01 T00810043  RH  077%=      5-min Rain = 0
KCO1 140202Z 09006KT 08/04 A2996 RMK A01 T00810043  RH  077%=      5-min Rain = 0
KCO1 140203Z 09007KT 08/04 A2996 RMK A01 T00810043  RH  077%=      5-min Rain = 0
KCO1 140204Z 09006KT 08/04 A2996 RMK A01 T00800043  RH  077%=      5-min Rain = 0
KCO1 140205Z 09005KT 08/04 A2996 RMK A01 T00800043  RH  078%=      5-min Rain = 0
KCO1 140206Z 09006KT 08/04 A2996 RMK A01 T00800043  RH  078%=      5-min Rain = 0
KCO1 140207Z 09006KT 08/04 A2996 RMK A01 T00790043  RH  078%=      5-min Rain = 0
KCO1 140208Z 08006KT 08/04 A2996 RMK A01 T00790043  RH  078%=      5-min Rain = 0
KCO1 140209Z 08005KT 08/04 A2996 RMK A01 T00790044  RH  079%=      5-min Rain = 0
KCO1 140210Z 08005KT 08/04 A2996 RMK A01 T00780044  RH  079%=      5-min Rain = 0
KCO1 140211Z 07005KT 08/04 A2996 RMK A01 T00780044  RH  079%=      5-min Rain = 0
KCO1 140212Z 07006KT 08/04 A2996 RMK A01 T00780044  RH  079%=      5-min Rain = 0
KCO1 140213Z 07005KT 08/05 A2996 RMK A01 T00780045  RH  080%=      5-min Rain = 0
KCO1 140214Z 07005KT 08/04 A2996 RMK A01 T00780044  RH  079%=      5-min Rain = 0
KCO1 140215Z 07005KT 08/05 A2996 RMK A01 T00780045  RH  080%=      5-min Rain = 0
KCO1 140216Z 07004KT 08/04 A2996 RMK A01 T00770044  RH  080%=      5-min Rain = 0
KCO1 140217Z 06004KT 08/04 A2996 RMK A01 T00770044  RH  080%=      5-min Rain = 0
KCO1 140218Z 06004KT 08/04 A2997 RMK A01 T00770044  RH  080%=      5-min Rain = 0
KCO1 140219Z 07004KT 08/04 A2997 RMK A01 T00760044  RH  080%=      5-min Rain = 0
KCO1 140220Z 07004KT 08/04 A2997 RMK A01 T00750043  RH  080%=      5-min Rain = 0
KCO1 140221Z 07004KT 08/04 A2997 RMK A01 T00750044  RH  081%=      5-min Rain = 0
KCO1 140222Z 07005KT 07/04 A2997 RMK A01 T00740043  RH  081%=      5-min Rain = 0
KCO1 140223Z 07005KT 07/04 A2997 RMK A01 T00730043  RH  081%=      5-min Rain = 0
KCO1 140224Z 06005KT 07/04 A2997 RMK A01 T00730044  RH  081%=      5-min Rain = 0
KCO1 140225Z 06004KT 07/04 A2997 RMK A01 T00730044  RH  082%=      5-min Rain = 0
KCO1 140226Z 06004KT 07/04 A2996 RMK A01 T00730044  RH  082%=      5-min Rain = 0
KCO1 140227Z 07003KT 07/04 A2996 RMK A01 T00730044  RH  082%=      5-min Rain = 0
KCO1 140228Z 07003KT 07/04 A2996 RMK A01 T00720043  RH  082%=      5-min Rain = 0
KCO1 140229Z 07003KT 07/04 A2996 RMK A01 T00720043  RH  082%=      5-min Rain = 0
KCO1 140230Z 07004KT 07/04 A2997 RMK A01 T00710043  RH  082%=      5-min Rain = 0
KCO1 140231Z 06004KT 07/04 A2997 RMK A01 T00710043  RH  082%=      5-min Rain = 0
KCO1 140232Z 06004KT 07/04 A2997 RMK A01 T00700043  RH  083%=      5-min Rain = 0
KCO1 140233Z 07005KT 07/04 A2997 RMK A01 T00700043  RH  083%=      5-min Rain = 0
KCO1 140234Z 07005KT 07/04 A2997 RMK A01 T00700043  RH  083%=      5-min Rain = 0
KCO1 140235Z 07005KT 07/04 A2997 RMK A01 T00700043  RH  083%=      5-min Rain = 0
KCO1 140236Z 07005KT 07/04 A2997 RMK A01 T00690043  RH  083%=      5-min Rain = 0
KCO1 140237Z 07004KT 07/04 A2997 RMK A01 T00690043  RH  083%=      5-min Rain = 0
KCO1 140238Z 07004KT 07/04 A2997 RMK A01 T00690043  RH  084%=      5-min Rain = 0
KCO1 140239Z 07004KT 07/04 A2997 RMK A01 T00690044  RH  084%=      5-min Rain = 0
KCO1 140240Z 07004KT 07/04 A2997 RMK A01 T00690043  RH  084%=      5-min Rain = 0
KCO1 140241Z 08004KT 07/04 A2997 RMK A01 T00680043  RH  084%=      5-min Rain = 0
KCO1 140242Z 08003KT 07/04 A2997 RMK A01 T00680043  RH  084%=      5-min Rain = 0
KCO1 140243Z 08003KT 07/04 A2997 RMK A01 T00670042  RH  084%=      5-min Rain = 0
KCO1 140244Z 08003KT 07/04 A2997 RMK A01 T00670042  RH  084%=      5-min Rain = 0
KCO1 140245Z 08003KT 07/04 A2997 RMK A01 T00670042  RH  084%=      5-min Rain = 0
KCO1 140246Z 09003KT 07/04 A2997 RMK A01 T00660041  RH  084%=      5-min Rain = 0
KCO1 140247Z 09003KT 07/04 A2997 RMK A01 T00660041  RH  084%=      5-min Rain = 0
KCO1 140248Z 09004KT 07/04 A2997 RMK A01 T00660042  RH  085%=      5-min Rain = 0
KCO1 140249Z 10004KT 07/04 A2997 RMK A01 T00650041  RH  085%=      5-min Rain = 0
KCO1 140250Z 09004KT 07/04 A2997 RMK A01 T00650041  RH  085%=      5-min Rain = 0
KCO1 140251Z 10004KT 06/04 A2997 RMK A01 T00640040  RH  085%=      5-min Rain = 0
KCO1 140252Z 10004KT 06/04 A2997 RMK A01 T00640040  RH  085%=      5-min Rain = 0
KCO1 140253Z 10004KT 06/04 A2997 RMK A01 T00630039  RH  085%=      5-min Rain = 0
KCO1 140254Z 10004KT 06/04 A2997 RMK A01 T00620039  RH  085%=      5-min Rain = 0
KCO1 140255Z 10003KT 06/04 A2997 RMK A01 T00620039  RH  085%=      5-min Rain = 0
KCO1 140256Z 10003KT 06/04 A2998 RMK A01 T00620039  RH  086%=      5-min Rain = 0
KCO1 140257Z 10003KT 06/04 A2998 RMK A01 T00610039  RH  086%=      5-min Rain = 0
KCO1 140258Z 10003KT 06/04 A2998 RMK A01 T00610039  RH  086%=      5-min Rain = 0
KCO1 140259Z 10003KT 06/04 A2998 RMK A01 T00600039  RH  086%=      5-min Rain = 0
KCO1 140300Z 09003KT 06/04 A2998 RMK A01 T00600039  RH  086%=      5-min Rain = 0
KCO1 140301Z 09003KT 06/04 A2998 RMK A01 T00590038  RH  086%=      5-min Rain = 0
KCO1 140302Z 09003KT 06/04 A2998 RMK A01 T00590038  RH  087%=      5-min Rain = 0
KCO1 140303Z 09003KT 06/04 A2998 RMK A01 T00590038  RH  087%=      5-min Rain = 0
KCO1 140304Z 09003KT 06/04 A2998 RMK A01 T00590038  RH  087%=      5-min Rain = 0
KCO1 140305Z 08003KT 06/04 A2998 RMK A01 T00580039  RH  087%=      5-min Rain = 0
KCO1 140306Z 08002KT 06/04 A2998 RMK A01 T00580039  RH  087%=      5-min Rain = 0
KCO1 140307Z 07002KT 06/04 A2998 RMK A01 T00590040  RH  088%=      5-min Rain = 0
KCO1 140308Z 06002KT 06/04 A2998 RMK A01 T00590041  RH  088%=      5-min Rain = 0
KCO1 140309Z 06003KT 06/04 A2998 RMK A01 T00590040  RH  088%=      5-min Rain = 0
KCO1 140310Z 07003KT 06/04 A2998 RMK A01 T00590040  RH  088%=      5-min Rain = 0
KCO1 140311Z 07003KT 06/04 A2998 RMK A01 T00580040  RH  088%=      5-min Rain = 0
KCO1 140312Z 07003KT 06/04 A2999 RMK A01 T00580040  RH  088%=      5-min Rain = 0
KCO1 140313Z 07003KT 06/04 A2999 RMK A01 T00580040  RH  088%=      5-min Rain = 0
KCO1 140314Z 07003KT 06/04 A2999 RMK A01 T00580041  RH  089%=      5-min Rain = 0
KCO1 140315Z 08004KT 06/04 A2999 RMK A01 T00570040  RH  089%=      5-min Rain = 0
KCO1 140316Z 08003KT 06/04 A2999 RMK A01 T00570040  RH  089%=      5-min Rain = 0
KCO1 140317Z 08004KT 06/04 A2998 RMK A01 T00570040  RH  089%=      5-min Rain = 0
KCO1 140318Z 08004KT 06/04 A2998 RMK A01 T00570040  RH  089%=      5-min Rain = 0
KCO1 140319Z 07004KT 06/04 A2998 RMK A01 T00570041  RH  089%=      5-min Rain = 0
KCO1 140320Z 07004KT 06/04 A2998 RMK A01 T00580041  RH  089%=      5-min Rain = 0
KCO1 140321Z 06003KT 06/04 A2998 RMK A01 T00580042  RH  089%=      5-min Rain = 0
KCO1 140322Z 06004KT 06/04 A2998 RMK A01 T00590043  RH  090%=      5-min Rain = 0
KCO1 140323Z 06004KT 06/04 A2998 RMK A01 T00590043  RH  090%=      5-min Rain = 0
KCO1 140324Z 06005KT 06/04 A2998 RMK A01 T00590043  RH  089%=      5-min Rain = 0
KCO1 140325Z 07005KT 06/04 A2998 RMK A01 T00590043  RH  089%=      5-min Rain = 0
KCO1 140326Z 07005KT 06/04 A2998 RMK A01 T00600043  RH  089%=      5-min Rain = 0
KCO1 140327Z 07004KT 06/04 A2998 RMK A01 T00600043  RH  089%=      5-min Rain = 0
KCO1 140328Z 07004KT 06/04 A2998 RMK A01 T00600043  RH  089%=      5-min Rain = 0
KCO1 140329Z 06003KT 06/04 A2998 RMK A01 T00600042  RH  089%=      5-min Rain = 0
KCO1 140330Z 06003KT 06/04 A2998 RMK A01 T00600043  RH  089%=      5-min Rain = 0
KCO1 140331Z 06004KT 06/04 A2998 RMK A01 T00600042  RH  088%=      5-min Rain = 0
KCO1 140332Z 06004KT 06/04 A2998 RMK A01 T00600042  RH  088%=      5-min Rain = 0
KCO1 140333Z 07004KT 06/04 A2998 RMK A01 T00600042  RH  088%=      5-min Rain = 0
KCO1 140334Z 07004KT 06/04 A2998 RMK A01 T00590041  RH  088%=      5-min Rain = 0
KCO1 140335Z 07003KT 06/04 A2998 RMK A01 T00590041  RH  088%=      5-min Rain = 0
KCO1 140336Z 07003KT 06/04 A2998 RMK A01 T00590041  RH  088%=      5-min Rain = 0
KCO1 140337Z 07003KT 06/04 A2998 RMK A01 T00590041  RH  088%=      5-min Rain = 0
KCO1 140338Z 07004KT 06/04 A2998 RMK A01 T00580041  RH  088%=      5-min Rain = 0
KCO1 140339Z 07004KT 06/04 A2998 RMK A01 T00580041  RH  088%=      5-min Rain = 0
KCO1 140340Z 06004KT 06/04 A2998 RMK A01 T00580040  RH  089%=      5-min Rain = 0
KCO1 140341Z 07003KT 06/04 A2998 RMK A01 T00580041  RH  089%=      5-min Rain = 0
KCO1 140342Z 07003KT 06/04 A2998 RMK A01 T00580041  RH  089%=      5-min Rain = 0
KCO1 140343Z 08004KT 06/04 A2998 RMK A01 T00580041  RH  089%=      5-min Rain = 0
KCO1 140344Z 08004KT 06/04 A2998 RMK A01 T00580041  RH  089%=      5-min Rain = 0
KCO1 140345Z 08004KT 06/04 A2998 RMK A01 T00580041  RH  089%=      5-min Rain = 0
KCO1 140346Z 08004KT 06/04 A2999 RMK A01 T00570041  RH  089%=      5-min Rain = 0
KCO1 140347Z 08004KT 06/04 A2999 RMK A01 T00570041  RH  089%=      5-min Rain = 0
KCO1 140348Z 08004KT 06/04 A2999 RMK A01 T00570040  RH  089%=      5-min Rain = 0
KCO1 140349Z 08004KT 06/04 A2999 RMK A01 T00570040  RH  089%=      5-min Rain = 0
KCO1 140350Z 08004KT 06/04 A2999 RMK A01 T00560040  RH  089%=      5-min Rain = 0
KCO1 140351Z 08004KT 06/04 A2999 RMK A01 T00560039  RH  089%=      5-min Rain = 0
KCO1 140352Z 07004KT 06/04 A2999 RMK A01 T00560039  RH  089%=      5-min Rain = 0
KCO1 140353Z 07004KT 06/04 A2999 RMK A01 T00560040  RH  090%=      5-min Rain = 0
KCO1 140354Z 07004KT 06/04 A2999 RMK A01 T00550039  RH  090%=      5-min Rain = 0
KCO1 140355Z 08003KT 06/04 A2999 RMK A01 T00550039  RH  090%=      5-min Rain = 0
KCO1 140356Z 07003KT 06/04 A2999 RMK A01 T00550040  RH  090%=      5-min Rain = 0
KCO1 140357Z 07004KT 06/04 A2999 RMK A01 T00550040  RH  090%=      5-min Rain = 0
KCO1 140358Z 07004KT 06/04 A2999 RMK A01 T00550040  RH  090%=      5-min Rain = 0
KCO1 140359Z 07004KT 05/04 A2999 RMK A01 T00540039  RH  090%=      5-min Rain = 0
KCO1 140400Z 07004KT 05/04 A2999 RMK A01 T00540039  RH  090%=      5-min Rain = 0
KCO1 140401Z 06004KT 05/04 A2999 RMK A01 T00540039  RH  090%=      5-min Rain = 0
KCO1 140402Z 06004KT 05/04 A2999 RMK A01 T00540039  RH  090%=      5-min Rain = 0
KCO1 140403Z 07004KT 05/04 A2999 RMK A01 T00540039  RH  091%=      5-min Rain = 0
KCO1 140404Z 07004KT 05/04 A2999 RMK A01 T00540040  RH  091%=      5-min Rain = 0
KCO1 140405Z 08004KT 05/04 A2999 RMK A01 T00540040  RH  091%=      5-min Rain = 0
KCO1 140406Z 08004KT 05/04 A2999 RMK A01 T00540040  RH  091%=      5-min Rain = 0
KCO1 140407Z 08004KT 05/04 A2999 RMK A01 T00540040  RH  091%=      5-min Rain = 0
KCO1 140408Z 07004KT 05/04 A2999 RMK A01 T00540040  RH  091%=      5-min Rain = 0
KCO1 140409Z 07004KT 05/04 A2999 RMK A01 T00540040  RH  091%=      5-min Rain = 0
KCO1 140410Z 07003KT 06/04 A2999 RMK A01 T00550040  RH  091%=      5-min Rain = 0
KCO1 140411Z 08003KT 05/04 A2999 RMK A01 T00540040  RH  090%=      5-min Rain = 0
KCO1 140412Z 08004KT 05/04 A2999 RMK A01 T00540039  RH  090%=      5-min Rain = 0
KCO1 140413Z 08004KT 05/04 A2999 RMK A01 T00530039  RH  090%=      5-min Rain = 0
KCO1 140414Z 08003KT 05/04 A2999 RMK A01 T00530038  RH  090%=      5-min Rain = 0
KCO1 140415Z 08003KT 05/04 A2999 RMK A01 T00530037  RH  090%=      5-min Rain = 0
KCO1 140416Z 07003KT 05/04 A2999 RMK A01 T00520037  RH  090%=      5-min Rain = 0
KCO1 140417Z 07003KT 05/04 A2999 RMK A01 T00520037  RH  090%=      5-min Rain = 0
KCO1 140418Z 08003KT 05/04 A30 RMK A01 T00520037  RH  090%=      5-min Rain = 0
KCO1 140419Z 08004KT 05/04 A30 RMK A01 T00510037  RH  090%=      5-min Rain = 0
KCO1 140420Z 07003KT 05/04 A30 RMK A01 T00510037  RH  090%=      5-min Rain = 0
KCO1 140421Z 07003KT 05/04 A30 RMK A01 T00510036  RH  091%=      5-min Rain = 0
KCO1 140422Z 07003KT 05/04 A30 RMK A01 T00510037  RH  091%=      5-min Rain = 0
KCO1 140423Z 08003KT 05/04 A30 RMK A01 T00510037  RH  091%=      5-min Rain = 0
KCO1 140424Z 08003KT 05/04 A30 RMK A01 T00510037  RH  091%=      5-min Rain = 0
KCO1 140425Z 09002KT 05/04 A30 RMK A01 T00500037  RH  091%=      5-min Rain = 0
KCO1 140426Z 10003KT 05/04 A30 RMK A01 T00500037  RH  091%=      5-min Rain = 0
KCO1 140427Z 09002KT 05/04 A30 RMK A01 T00500037  RH  091%=      5-min Rain = 0
KCO1 140428Z 10002KT 05/04 A30 RMK A01 T00500036  RH  091%=      5-min Rain = 0
KCO1 140429Z 09002KT 05/04 A30 RMK A01 T00490036  RH  091%=      5-min Rain = 0
KCO1 140430Z 09002KT 05/04 A30 RMK A01 T00490036  RH  091%=      5-min Rain = 0
KCO1 140431Z 10003KT 05/04 A30 RMK A01 T00490036  RH  091%=      5-min Rain = 0
KCO1 140432Z 10003KT 05/04 A30 RMK A01 T00490035  RH  091%=      5-min Rain = 0
KCO1 140433Z 10004KT 05/04 A30 RMK A01 T00480035  RH  091%=      5-min Rain = 0
KCO1 140434Z 11003KT 05/04 A30 RMK A01 T00480035  RH  091%=      5-min Rain = 0
KCO1 140435Z 11004KT 05/04 A30 RMK A01 T00480035  RH  091%=      5-min Rain = 0
KCO1 140436Z 11004KT 05/04 A30 RMK A01 T00470035  RH  091%=      5-min Rain = 0
KCO1 140437Z 11004KT 05/03 A30 RMK A01 T00470034  RH  091%=      5-min Rain = 0
KCO1 140438Z 11004KT 05/03 A30 RMK A01 T00460034  RH  091%=      5-min Rain = 0
KCO1 140439Z 11004KT 05/03 A30 RMK A01 T00460033  RH  091%=      5-min Rain = 0
KCO1 140440Z 10005KT 05/03 A30 RMK A01 T00450032  RH  091%=      5-min Rain = 0
KCO1 140441Z 10005KT 05/03 A30 RMK A01 T00450032  RH  091%=      5-min Rain = 0
KCO1 140442Z 09005KT 04/03 A30 RMK A01 T00440031  RH  091%=      5-min Rain = 0
KCO1 140443Z 09005KT 04/03 A30 RMK A01 T00440032  RH  092%=      5-min Rain = 0
KCO1 140444Z 09005KT 04/03 A30 RMK A01 T00440032  RH  092%=      5-min Rain = 0
KCO1 140445Z 09005KT 04/03 A30 RMK A01 T00440032  RH  092%=      5-min Rain = 0
KCO1 140446Z 08004KT 04/03 A30 RMK A01 T00440032  RH  092%=      5-min Rain = 0
KCO1 140447Z 08004KT 05/03 A30 RMK A01 T00450033  RH  092%=      5-min Rain = 0
KCO1 140448Z 08004KT 05/03 A30 RMK A01 T00450033  RH  092%=      5-min Rain = 0
KCO1 140449Z 08004KT 05/03 A30 RMK A01 T00450033  RH  092%=      5-min Rain = 0
KCO1 140450Z 08004KT 05/03 A30 RMK A01 T00450033  RH  092%=      5-min Rain = 0
KCO1 140451Z 08004KT 05/03 A30 RMK A01 T00450033  RH  092%=      5-min Rain = 0
KCO1 140452Z 08004KT 05/03 A3001 RMK A01 T00450033  RH  092%=      5-min Rain = 0
KCO1 140453Z 08004KT 05/03 A3001 RMK A01 T00450033  RH  092%=      5-min Rain = 0
KCO1 140454Z 08004KT 05/03 A3001 RMK A01 T00450033  RH  092%=      5-min Rain = 0
KCO1 140455Z 08004KT 05/03 A3001 RMK A01 T00450033  RH  092%=      5-min Rain = 0
KCO1 140456Z 09004KT 05/03 A30 RMK A01 T00450033  RH  092%=      5-min Rain = 0
KCO1 140457Z 09004KT 04/03 A30 RMK A01 T00440032  RH  092%=      5-min Rain = 0
KCO1 140458Z 09003KT 04/03 A30 RMK A01 T00440032  RH  092%=      5-min Rain = 0
KCO1 140459Z 08003KT 04/03 A30 RMK A01 T00430031  RH  092%=      5-min Rain = 0
KCO1 140500Z 08003KT 04/03 A30 RMK A01 T00430031  RH  092%=      5-min Rain = 0
KCO1 140501Z 08003KT 04/03 A30 RMK A01 T00430031  RH  092%=      5-min Rain = 0
KCO1 140502Z 08003KT 04/03 A30 RMK A01 T00430031  RH  092%=      5-min Rain = 0
KCO1 140503Z 08003KT 04/03 A3001 RMK A01 T00430031  RH  092%=      5-min Rain = 0
KCO1 140504Z 08003KT 04/03 A3001 RMK A01 T00430031  RH  092%=      5-min Rain = 0
KCO1 140505Z 08002KT 04/03 A3001 RMK A01 T00440032  RH  092%=      5-min Rain = 0
KCO1 140506Z 06002KT 04/03 A3001 RMK A01 T00430031  RH  092%=      5-min Rain = 0
KCO1 140507Z 06002KT 04/03 A3001 RMK A01 T00430031  RH  092%=      5-min Rain = 0
KCO1 140508Z 06003KT 04/03 A3001 RMK A01 T00430031  RH  092%=      5-min Rain = 0
KCO1 140509Z 06003KT 04/03 A3001 RMK A01 T00430031  RH  092%=      5-min Rain = 0
KCO1 140510Z 06004KT 04/03 A3001 RMK A01 T00430031  RH  092%=      5-min Rain = 0
KCO1 140511Z 06004KT 04/03 A3001 RMK A01 T00420031  RH  092%=      5-min Rain = 0
KCO1 140512Z 05003KT 04/03 A3001 RMK A01 T00430031  RH  092%=      5-min Rain = 0
KCO1 140513Z 04002KT 04/03 A3001 RMK A01 T00420030  RH  092%=      5-min Rain = 0
KCO1 140514Z 04002KT 04/03 A3001 RMK A01 T00410030  RH  092%=      5-min Rain = 0
KCO1 140515Z 05002KT 04/03 A3001 RMK A01 T00410029  RH  092%=      5-min Rain = 0
KCO1 140516Z 05002KT 04/03 A3001 RMK A01 T00410029  RH  092%=      5-min Rain = 0
KCO1 140517Z 04003KT 04/03 A3001 RMK A01 T00400029  RH  092%=      5-min Rain = 0
KCO1 140518Z 04003KT 04/03 A3001 RMK A01 T00400028  RH  092%=      5-min Rain = 0
KCO1 140519Z 05003KT 04/03 A3001 RMK A01 T00390028  RH  092%=      5-min Rain = 0
KCO1 140520Z 05003KT 04/03 A3001 RMK A01 T00390027  RH  092%=      5-min Rain = 0
KCO1 140521Z 05001KT 04/03 A3001 RMK A01 T00390027  RH  092%=      5-min Rain = 0
KCO1 140522Z 05000KT 04/03 A3001 RMK A01 T00380027  RH  092%=      5-min Rain = 0
KCO1 140523Z 05001KT 04/03 A3001 RMK A01 T00390028  RH  093%=      5-min Rain = 0
KCO1 140524Z 05001KT 04/03 A3001 RMK A01 T00390028  RH  093%=      5-min Rain = 0
KCO1 140525Z 05001KT 04/03 A3001 RMK A01 T00390028  RH  093%=      5-min Rain = 0
KCO1 140526Z 05001KT 04/03 A3001 RMK A01 T00390028  RH  093%=      5-min Rain = 0
KCO1 140527Z 04001KT 04/03 A3002 RMK A01 T00380028  RH  093%=      5-min Rain = 0
KCO1 140528Z 04001KT 04/03 A3002 RMK A01 T00380027  RH  093%=      5-min Rain = 0
KCO1 140529Z 05002KT 04/03 A3002 RMK A01 T00380027  RH  093%=      5-min Rain = 0
KCO1 140530Z 06002KT 04/03 A3002 RMK A01 T00370027  RH  093%=      5-min Rain = 0
KCO1 140531Z 05002KT 04/03 A3002 RMK A01 T00370027  RH  093%=      5-min Rain = 0
KCO1 140532Z 05002KT 04/03 A3002 RMK A01 T00370027  RH  093%=      5-min Rain = 0
KCO1 140533Z 05002KT 04/03 A3002 RMK A01 T00360026  RH  093%=      5-min Rain = 0
KCO1 140534Z 05003KT 04/02 A3002 RMK A01 T00350024  RH  093%=      5-min Rain = 0
KCO1 140535Z 04002KT 03/02 A3002 RMK A01 T00340024  RH  093%=      5-min Rain = 0
KCO1 140536Z 03001KT 03/02 A3002 RMK A01 T00340023  RH  093%=      5-min Rain = 0
KCO1 140537Z 05001KT 03/02 A3002 RMK A01 T00340024  RH  093%=      5-min Rain = 0
KCO1 140538Z 06003KT 03/03 A3002 RMK A01 T00340025  RH  093%=      5-min Rain = 0
KCO1 140539Z 02001KT 04/03 A3002 RMK A01 T00350025  RH  093%=      5-min Rain = 0
KCO1 140540Z 32002KT 03/03 A3002 RMK A01 T00340025  RH  093%=      5-min Rain = 0
KCO1 140541Z 02003KT 03/02 A3002 RMK A01 T00340024  RH  093%=      5-min Rain = 0
KCO1 140542Z 04004KT 03/02 A3002 RMK A01 T00330023  RH  093%=      5-min Rain = 0
KCO1 140543Z 04003KT 03/02 A3002 RMK A01 T00340024  RH  094%=      5-min Rain = 0
KCO1 140544Z 33002KT 03/03 A3002 RMK A01 T00340025  RH  094%=      5-min Rain = 0
KCO1 140545Z 35002KT 03/02 A3002 RMK A01 T00340024  RH  094%=      5-min Rain = 0
KCO1 140546Z 03004KT 03/03 A3002 RMK A01 T00340025  RH  094%=      5-min Rain = 0
KCO1 140547Z 03004KT 03/02 A3002 RMK A01 T00340024  RH  094%=      5-min Rain = 0
KCO1 140548Z 02004KT 03/02 A3003 RMK A01 T00330023  RH  094%=      5-min Rain = 0
KCO1 140549Z 03004KT 03/02 A3003 RMK A01 T00320022  RH  093%=      5-min Rain = 0
KCO1 140550Z 03004KT 03/02 A3003 RMK A01 T00310021  RH  093%=      5-min Rain = 0
KCO1 140551Z 02004KT 03/02 A3003 RMK A01 T00310021  RH  093%=      5-min Rain = 0
KCO1 140552Z 02003KT 03/02 A3003 RMK A01 T00300021  RH  093%=      5-min Rain = 0
KCO1 140553Z 02003KT 03/02 A3003 RMK A01 T00300020  RH  093%=      5-min Rain = 0
KCO1 140554Z 03003KT 03/02 A3003 RMK A01 T00290020  RH  094%=      5-min Rain = 0
KCO1 140555Z 03003KT 03/02 A3003 RMK A01 T00290019  RH  094%=      5-min Rain = 0
KCO1 140556Z 04003KT 03/02 A3003 RMK A01 T00290020  RH  094%=      5-min Rain = 0
KCO1 140557Z 04004KT 03/02 A3003 RMK A01 T00290020  RH  094%=      5-min Rain = 0
KCO1 140558Z 04003KT 03/02 A3003 RMK A01 T00290020  RH  094%=      5-min Rain = 0
KCO1 140559Z 04003KT 03/02 A3003 RMK A01 T00290020  RH  094%=      5-min Rain = 0

Page generated in 0.0699 seconds.